| time (UTC) | temp F | wind direction | speed MPH | gust MPH | rain 1hr in | rain 24hr in | rain mn in | humidity % | barometer mb |
| 20260905171351 | 64 | 315 | 6.0 | 0.0 | 0.00 | 0.00 | 0.00 | 67 | 1066.2 |
| 20260905171231 | 64 | 315 | 13.0 | 0.0 | 0.00 | 0.00 | 0.00 | 67 | 1066.1 |
| 20260905171115 | 64 | 337 | 4.0 | 0.0 | 0.00 | 0.00 | 0.00 | 67 | 1066.0 |
| 20260905170956 | 64 | 315 | 4.0 | 0.0 | 0.00 | 0.00 | 0.00 | 67 | 1066.0 |
| 20260905170850 | 64 | 0 | 11.0 | 0.0 | 0.00 | 0.00 | 0.00 | 67 | 1066.0 |
| 20260905170737 | 64 | 315 | 12.0 | 0.0 | 0.00 | 0.00 | 0.00 | 66 | 1065.9 |
| 20260905170618 | 64 | 337 | 5.0 | 0.0 | 0.00 | 0.00 | 0.00 | 66 | 1066.0 |
| 20260905170456 | 65 | 270 | 12.0 | 0.0 | 0.00 | 0.00 | 0.00 | 66 | 1066.0 |
| 20260905170335 | 65 | 337 | 6.0 | 0.0 | 0.00 | 0.00 | 0.00 | 66 | 1066.0 |
| 20260905170208 | 65 | 292 | 8.0 | 0.0 | 0.00 | 0.00 | 0.00 | 66 | 1066.0 |
| 20260905165958 | 65 | 292 | 0.0 | 0.0 | 0.00 | 0.00 | 0.00 | 66 | 1065.9 |
| 20260905165850 | 65 | 337 | 10.0 | 0.0 | 0.00 | 0.00 | 0.00 | 66 | 1065.9 |
| 20260905165738 | 65 | 292 | 0.0 | 0.0 | 0.00 | 0.00 | 0.00 | 67 | 1065.9 |
| 20260905165627 | 65 | 337 | 6.0 | 0.0 | 0.00 | 0.00 | 0.00 | 67 | 1065.8 |
| 20260905165519 | 65 | 337 | 10.0 | 0.0 | 0.00 | 0.00 | 0.00 | 68 | 1065.9 |
| 20260905165359 | 65 | 337 | 3.0 | 0.0 | 0.00 | 0.00 | 0.00 | 68 | 1065.9 |
| 20260905165256 | 65 | 337 | 10.0 | 0.0 | 0.00 | 0.00 | 0.00 | 68 | 1066.1 |
| 20260905165148 | 66 | 315 | 0.0 | 0.0 | 0.00 | 0.00 | 0.00 | 68 | 1066.0 |
| 20260905165027 | 66 | 0 | 4.0 | 0.0 | 0.00 | 0.00 | 0.00 | 68 | 1065.9 |
| 20260905164905 | 66 | 292 | 3.0 | 0.0 | 0.00 | 0.00 | 0.00 | 67 | 1065.8 |
| 20260905164752 | 66 | 292 | 13.0 | 0.0 | 0.00 | 0.00 | 0.00 | 67 | 1065.8 |
| 20260905164631 | 66 | 315 | 3.0 | 0.0 | 0.00 | 0.00 | 0.00 | 67 | 1065.8 |
| 20260905164520 | 65 | 292 | 0.0 | 0.0 | 0.00 | 0.00 | 0.00 | 67 | 1065.7 |
| 20260905164413 | 66 | 292 | 3.0 | 0.0 | 0.00 | 0.00 | 0.00 | 66 | 1065.7 |
| 20260905164300 | 65 | 337 | 11.0 | 0.0 | 0.00 | 0.00 | 0.00 | 66 | 1065.7 |
| 20260905164149 | 66 | 0 | 5.0 | 0.0 | 0.00 | 0.00 | 0.00 | 67 | 1065.7 |
| 20260905164021 | 66 | 315 | 6.0 | 0.0 | 0.00 | 0.00 | 0.00 | 68 | 1065.7 |
| 20260905163908 | 66 | 45 | 10.0 | 0.0 | 0.00 | 0.00 | 0.00 | 67 | 1065.7 |
| 20260905163754 | 66 | 292 | 7.0 | 0.0 | 0.00 | 0.00 | 0.00 | 66 | 1065.8 |
| 20260905163630 | 66 | 292 | 5.0 | 0.0 | 0.00 | 0.00 | 0.00 | 66 | 1065.7 |
| 20260905163519 | 66 | 337 | 5.0 | 0.0 | 0.00 | 0.00 | 0.00 | 67 | 1065.8 |
| 20260905163404 | 66 | 315 | 8.0 | 0.0 | 0.00 | 0.00 | 0.00 | 67 | 1065.7 |
| 20260905163243 | 66 | 292 | 5.0 | 0.0 | 0.00 | 0.00 | 0.00 | 67 | 1065.7 |
| 20260905163122 | 66 | 45 | 0.0 | 0.0 | 0.00 | 0.00 | 0.00 | 67 | 1065.7 |
| 20260905163009 | 66 | 337 | 0.0 | 0.0 | 0.00 | 0.00 | 0.00 | 66 | 1065.7 |
| 20260905162855 | 66 | 315 | 17.0 | 0.0 | 0.00 | 0.00 | 0.00 | 66 | 1065.6 |
| 20260905162749 | 66 | 0 | 9.0 | 0.0 | 0.00 | 0.00 | 0.00 | 66 | 1065.7 |
| 20260905162644 | 66 | 315 | 7.0 | 0.0 | 0.00 | 0.00 | 0.00 | 66 | 1065.7 |
| 20260905162522 | 66 | 0 | 6.0 | 0.0 | 0.00 | 0.00 | 0.00 | 66 | 1065.7 |
| 20260905162401 | 66 | 315 | 7.0 | 0.0 | 0.00 | 0.00 | 0.00 | 66 | 1065.6 |
| 20260905162255 | 66 | 270 | 7.0 | 0.0 | 0.00 | 0.00 | 0.00 | 67 | 1065.6 |
| 20260905162142 | 66 | 270 | 6.0 | 0.0 | 0.00 | 0.00 | 0.00 | 67 | 1065.6 |
| 20260905162022 | 66 | 315 | 11.0 | 0.0 | 0.00 | 0.00 | 0.00 | 67 | 1065.6 |
| 20260905161908 | 66 | 292 | 0.0 | 0.0 | 0.00 | 0.00 | 0.00 | 67 | 1065.5 |
| 20260905161755 | 66 | 337 | 0.0 | 0.0 | 0.00 | 0.00 | 0.00 | 67 | 1065.5 |
| 20260905161634 | 66 | 0 | 4.0 | 0.0 | 0.00 | 0.00 | 0.00 | 67 | 1065.5 |
| 20260905161521 | 66 | 292 | 15.0 | 0.0 | 0.00 | 0.00 | 0.00 | 67 | 1065.5 |
| 20260905161416 | 66 | 292 | 10.0 | 0.0 | 0.00 | 0.00 | 0.00 | 67 | 1065.5 |
| 20260905161312 | 66 | 270 | 4.0 | 0.0 | 0.00 | 0.00 | 0.00 | 67 | 1065.5 |
| 20260905161204 | 66 | 315 | 0.0 | 0.0 | 0.00 | 0.00 | 0.00 | 66 | 1065.5 |
| 20260905161045 | 66 | 315 | 6.0 | 0.0 | 0.00 | 0.00 | 0.00 | 66 | 1065.5 |
| 20260905160934 | 66 | 315 | 14.0 | 0.0 | 0.00 | 0.00 | 0.00 | 67 | 1065.4 |
| 20260905160827 | 66 | 0 | 6.0 | 0.0 | 0.00 | 0.00 | 0.00 | 67 | 1065.4 |
| 20260905160723 | 66 | 315 | 10.0 | 0.0 | 0.00 | 0.00 | 0.00 | 67 | 1065.4 |
| 20260905160616 | 66 | 315 | 15.0 | 0.0 | 0.00 | 0.00 | 0.00 | 67 | 1065.3 |
| 20260905160455 | 66 | 315 | 6.0 | 0.0 | 0.00 | 0.00 | 0.00 | 68 | 1065.4 |
| 20260905160333 | 66 | 292 | 11.0 | 0.0 | 0.00 | 0.00 | 0.00 | 67 | 1065.3 |
| 20260905160211 | 66 | 315 | 0.0 | 0.0 | 0.00 | 0.00 | 0.00 | 67 | 1065.4 |
| 20260905160052 | 66 | 292 | 9.0 | 0.0 | 0.00 | 0.00 | 0.00 | 67 | 1065.3 |
| 20260905155949 | 66 | 202 | 2.0 | 0.0 | 0.00 | 0.00 | 0.00 | 68 | 1065.4 |
| 20260905155841 | 66 | 315 | 0.0 | 0.0 | 0.00 | 0.00 | 0.00 | 68 | 1065.4 |
| 20260905155727 | 66 | 315 | 5.0 | 0.0 | 0.00 | 0.00 | 0.00 | 68 | 1065.4 |
| 20260905155615 | 66 | 315 | 5.0 | 0.0 | 0.00 | 0.00 | 0.00 | 68 | 1065.4 |
| 20260905155502 | 66 | 337 | 13.0 | 0.0 | 0.00 | 0.00 | 0.00 | 68 | 1065.4 |
| 20260905155357 | 66 | 337 | 1.0 | 0.0 | 0.00 | 0.00 | 0.00 | 68 | 1065.3 |
| 20260905155244 | 66 | 337 | 6.0 | 0.0 | 0.00 | 0.00 | 0.00 | 68 | 1065.3 |
| 20260905155122 | 66 | 337 | 4.0 | 0.0 | 0.00 | 0.00 | 0.00 | 67 | 1065.2 |
| 20260905155001 | 66 | 270 | 0.0 | 0.0 | 0.00 | 0.00 | 0.00 | 67 | 1065.3 |
| 20260905154848 | 66 | 0 | 6.0 | 0.0 | 0.00 | 0.00 | 0.00 | 67 | 1065.1 |
| 20260905154734 | 66 | 45 | 6.0 | 0.0 | 0.00 | 0.00 | 0.00 | 67 | 1065.2 |
| 20260905154614 | 67 | 315 | 7.0 | 0.0 | 0.00 | 0.00 | 0.00 | 66 | 1065.3 |
| 20260905154459 | 67 | 270 | 6.0 | 0.0 | 0.00 | 0.00 | 0.00 | 65 | 1065.2 |
| 20260905154346 | 67 | 0 | 5.0 | 0.0 | 0.00 | 0.00 | 0.00 | 65 | 1065.1 |
| 20260905154235 | 67 | 337 | 0.0 | 0.0 | 0.00 | 0.00 | 0.00 | 64 | 1065.1 |
| 20260905154129 | 67 | 292 | 0.0 | 0.0 | 0.00 | 0.00 | 0.00 | 63 | 1065.0 |
| 20260905154015 | 68 | 337 | 4.0 | 0.0 | 0.00 | 0.00 | 0.00 | 63 | 1064.9 |
| 20260905153902 | 68 | 315 | 7.0 | 0.0 | 0.00 | 0.00 | 0.00 | 62 | 1065.0 |
| 20260905153741 | 68 | 292 | 8.0 | 0.0 | 0.00 | 0.00 | 0.00 | 62 | 1064.9 |
| 20260905153627 | 69 | 292 | 3.0 | 0.0 | 0.00 | 0.00 | 0.00 | 63 | 1064.9 |
| 20260905153515 | 69 | 0 | 9.0 | 0.0 | 0.00 | 0.00 | 0.00 | 63 | 1064.8 |
| 20260905153409 | 69 | 292 | 6.0 | 0.0 | 0.00 | 0.00 | 0.00 | 63 | 1064.8 |
| 20260905153258 | 69 | 292 | 8.0 | 0.0 | 0.00 | 0.00 | 0.00 | 63 | 1064.9 |
| 20260905153151 | 70 | 337 | 3.0 | 0.0 | 0.00 | 0.00 | 0.00 | 62 | 1064.9 |
| 20260905153030 | 70 | 270 | 7.0 | 0.0 | 0.00 | 0.00 | 0.00 | 62 | 1064.8 |
| 20260905152916 | 70 | 315 | 14.0 | 0.0 | 0.00 | 0.00 | 0.00 | 62 | 1064.8 |
| 20260905152757 | 70 | 292 | 8.0 | 0.0 | 0.00 | 0.00 | 0.00 | 62 | 1064.8 |
| 20260905152650 | 70 | 337 | 4.0 | 0.0 | 0.00 | 0.00 | 0.00 | 61 | 1064.8 |
| 20260905152530 | 70 | 337 | 6.0 | 0.0 | 0.00 | 0.00 | 0.00 | 61 | 1064.8 |
| 20260905152424 | 70 | 315 | 3.0 | 0.0 | 0.00 | 0.00 | 0.00 | 61 | 1064.8 |
| 20260905152311 | 70 | 0 | 0.0 | 0.0 | 0.00 | 0.00 | 0.00 | 62 | 1064.8 |
| 20260905152152 | 70 | 337 | 12.0 | 0.0 | 0.00 | 0.00 | 0.00 | 63 | 1064.8 |
| 20260905152046 | 70 | 337 | 10.0 | 0.0 | 0.00 | 0.00 | 0.00 | 62 | 1064.8 |
| 20260905151933 | 70 | 337 | 0.0 | 0.0 | 0.00 | 0.00 | 0.00 | 61 | 1064.7 |
| 20260905151827 | 70 | 337 | 7.0 | 0.0 | 0.00 | 0.00 | 0.00 | 61 | 1064.8 |
| 20260905151705 | 70 | 247 | 5.0 | 0.0 | 0.00 | 0.00 | 0.00 | 62 | 1064.8 |
| 20260905151545 | 70 | 270 | 4.0 | 0.0 | 0.00 | 0.00 | 0.00 | 62 | 1064.7 |
| 20260905151440 | 70 | 337 | 9.0 | 0.0 | 0.00 | 0.00 | 0.00 | 62 | 1064.7 |
| 20260905151335 | 70 | 270 | 5.0 | 0.0 | 0.00 | 0.00 | 0.00 | 63 | 1064.8 |
| 20260905151230 | 69 | 270 | 0.0 | 0.0 | 0.00 | 0.00 | 0.00 | 63 | 1064.7 |
| 20260905151124 | 69 | 337 | 6.0 | 0.0 | 0.00 | 0.00 | 0.00 | 63 | 1064.7 |
| 20260905150956 | 69 | 292 | 9.0 | 0.0 | 0.00 | 0.00 | 0.00 | 64 | 1064.7 |
| 20260905150851 | 69 | 315 | 15.0 | 0.0 | 0.00 | 0.00 | 0.00 | 64 | 1064.7 |
| 20260905150736 | 69 | 292 | 8.0 | 0.0 | 0.00 | 0.00 | 0.00 | 64 | 1064.7 |
| 20260905150607 | 69 | 270 | 7.0 | 0.0 | 0.00 | 0.00 | 0.00 | 64 | 1064.7 |
| 20260905150455 | 69 | 315 | 0.0 | 0.0 | 0.00 | 0.00 | 0.00 | 64 | 1064.6 |
| 20260905150343 | 69 | 0 | 10.0 | 0.0 | 0.00 | 0.00 | 0.00 | 64 | 1064.7 |
| 20260905150229 | 69 | 337 | 0.0 | 0.0 | 0.00 | 0.00 | 0.00 | 63 | 1064.7 |
| 20260905150124 | 69 | 270 | 6.0 | 0.0 | 0.00 | 0.00 | 0.00 | 64 | 1064.6 |
| 20260905150003 | 69 | 337 | 5.0 | 0.0 | 0.00 | 0.00 | 0.00 | 64 | 1064.7 |
| 20260905145843 | 69 | 315 | 11.0 | 0.0 | 0.00 | 0.00 | 0.00 | 63 | 1064.6 |
| 20260905145713 | 69 | 315 | 3.0 | 0.0 | 0.00 | 0.00 | 0.00 | 64 | 1064.6 |
| 20260905145552 | 69 | 337 | 6.0 | 0.0 | 0.00 | 0.00 | 0.00 | 64 | 1064.6 |
| 20260905145445 | 69 | 292 | 0.0 | 0.0 | 0.00 | 0.00 | 0.00 | 63 | 1064.6 |
| 20260905145331 | 69 | 292 | 12.0 | 0.0 | 0.00 | 0.00 | 0.00 | 64 | 1064.6 |
| 20260905145204 | 69 | 337 | 6.0 | 0.0 | 0.00 | 0.00 | 0.00 | 64 | 1064.5 |
| 20260905145100 | 69 | 337 | 14.0 | 0.0 | 0.00 | 0.00 | 0.00 | 65 | 1064.6 |
| 20260905144952 | 68 | 270 | 8.0 | 0.0 | 0.00 | 0.00 | 0.00 | 64 | 1064.5 |
| 20260905144839 | 68 | 292 | 14.0 | 0.0 | 0.00 | 0.00 | 0.00 | 64 | 1064.5 |
| 20260905144734 | 68 | 337 | 0.0 | 0.0 | 0.00 | 0.00 | 0.00 | 64 | 1064.6 |
| 20260905144612 | 68 | 292 | 0.0 | 0.0 | 0.00 | 0.00 | 0.00 | 64 | 1064.6 |
| 20260905144459 | 68 | 315 | 6.0 | 0.0 | 0.00 | 0.00 | 0.00 | 63 | 1064.5 |
| 20260905144346 | 68 | 270 | 10.0 | 0.0 | 0.00 | 0.00 | 0.00 | 63 | 1064.4 |
| 20260905144241 | 68 | 315 | 9.0 | 0.0 | 0.00 | 0.00 | 0.00 | 64 | 1064.4 |
| 20260905144130 | 69 | 315 | 11.0 | 0.0 | 0.00 | 0.00 | 0.00 | 63 | 1064.4 |
| 20260905144015 | 69 | 315 | 5.0 | 0.0 | 0.00 | 0.00 | 0.00 | 63 | 1064.4 |
| 20260905143854 | 69 | 337 | 9.0 | 0.0 | 0.00 | 0.00 | 0.00 | 63 | 1064.4 |
| 20260905143748 | 69 | 292 | 10.0 | 0.0 | 0.00 | 0.00 | 0.00 | 63 | 1064.3 |
| 20260905143629 | 69 | 315 | 7.0 | 0.0 | 0.00 | 0.00 | 0.00 | 64 | 1064.3 |
| 20260905143514 | 69 | 0 | 5.0 | 0.0 | 0.00 | 0.00 | 0.00 | 63 | 1064.3 |
| 20260905143402 | 69 | 270 | 18.0 | 0.0 | 0.00 | 0.00 | 0.00 | 63 | 1064.2 |
| 20260905143257 | 69 | 247 | 4.0 | 0.0 | 0.00 | 0.00 | 0.00 | 63 | 1064.4 |
| 20260905143152 | 69 | 315 | 19.0 | 0.0 | 0.00 | 0.00 | 0.00 | 64 | 1064.3 |
| 20260905143046 | 68 | 337 | 6.0 | 0.0 | 0.00 | 0.00 | 0.00 | 64 | 1064.2 |
| 20260905142941 | 68 | 315 | 6.0 | 0.0 | 0.00 | 0.00 | 0.00 | 64 | 1064.3 |
| 20260905142820 | 68 | 315 | 5.0 | 0.0 | 0.00 | 0.00 | 0.00 | 64 | 1064.2 |
| 20260905142659 | 68 | 315 | 11.0 | 0.0 | 0.00 | 0.00 | 0.00 | 65 | 1064.2 |
| 20260905142554 | 68 | 337 | 0.0 | 0.0 | 0.00 | 0.00 | 0.00 | 65 | 1064.2 |
| 20260905142448 | 68 | 315 | 12.0 | 0.0 | 0.00 | 0.00 | 0.00 | 65 | 1064.2 |
| 20260905142335 | 68 | 337 | 5.0 | 0.0 | 0.00 | 0.00 | 0.00 | 65 | 1064.2 |
| 20260905142221 | 68 | 315 | 6.0 | 0.0 | 0.00 | 0.00 | 0.00 | 65 | 1064.2 |
| 20260905142109 | 68 | 315 | 10.0 | 0.0 | 0.00 | 0.00 | 0.00 | 64 | 1064.1 |
| 20260905141956 | 68 | 22 | 5.0 | 0.0 | 0.00 | 0.00 | 0.00 | 64 | 1064.2 |
| 20260905141850 | 68 | 270 | 8.0 | 0.0 | 0.00 | 0.00 | 0.00 | 63 | 1064.2 |
| 20260905141721 | 68 | 315 | 11.0 | 0.0 | 0.00 | 0.00 | 0.00 | 64 | 1064.2 |
| 20260905141608 | 68 | 315 | 5.0 | 0.0 | 0.00 | 0.00 | 0.00 | 63 | 1064.2 |
| 20260905141504 | 68 | 337 | 5.0 | 0.0 | 0.00 | 0.00 | 0.00 | 63 | 1064.2 |
| 20260905141349 | 68 | 292 | 9.0 | 0.0 | 0.00 | 0.00 | 0.00 | 63 | 1064.2 |
| 20260905141236 | 68 | 270 | 6.0 | 0.0 | 0.00 | 0.00 | 0.00 | 64 | 1064.1 |
| 20260905141123 | 68 | 292 | 0.0 | 0.0 | 0.00 | 0.00 | 0.00 | 64 | 1064.1 |
| 20260905141004 | 67 | 225 | 7.0 | 0.0 | 0.00 | 0.00 | 0.00 | 63 | 1064.1 |
| 20260905140858 | 67 | 0 | 25.0 | 0.0 | 0.00 | 0.00 | 0.00 | 63 | 1064.1 |
| 20260905140752 | 68 | 45 | 9.0 | 0.0 | 0.00 | 0.00 | 0.00 | 63 | 1064.1 |
| 20260905140632 | 68 | 247 | 11.0 | 0.0 | 0.00 | 0.00 | 0.00 | 63 | 1064.1 |
| 20260905140526 | 68 | 292 | 12.0 | 0.0 | 0.00 | 0.00 | 0.00 | 63 | 1064.2 |
| 20260905140413 | 68 | 292 | 12.0 | 0.0 | 0.00 | 0.00 | 0.00 | 64 | 1064.1 |
| 20260905140308 | 68 | 292 | 12.0 | 0.0 | 0.00 | 0.00 | 0.00 | 64 | 1064.0 |
| 20260905140146 | 68 | 337 | 8.0 | 0.0 | 0.00 | 0.00 | 0.00 | 64 | 1064.0 |
| 20260905140034 | 68 | 22 | 6.0 | 0.0 | 0.00 | 0.00 | 0.00 | 64 | 1064.0 |
| 20260905135921 | 67 | 337 | 0.0 | 0.0 | 0.00 | 0.00 | 0.00 | 63 | 1064.0 |
| 20260905135815 | 68 | 315 | 3.0 | 0.0 | 0.00 | 0.00 | 0.00 | 63 | 1063.9 |
| 20260905135654 | 67 | 292 | 7.0 | 0.0 | 0.00 | 0.00 | 0.00 | 64 | 1063.9 |
| 20260905135533 | 67 | 315 | 5.0 | 0.0 | 0.00 | 0.00 | 0.00 | 64 | 1063.9 |
| 20260905135422 | 67 | 337 | 8.0 | 0.0 | 0.00 | 0.00 | 0.00 | 64 | 1064.0 |
| 20260905135300 | 67 | 337 | 12.0 | 0.0 | 0.00 | 0.00 | 0.00 | 65 | 1064.0 |
| 20260905135147 | 67 | 270 | 8.0 | 0.0 | 0.00 | 0.00 | 0.00 | 65 | 1063.8 |
| 20260905135035 | 67 | 315 | 6.0 | 0.0 | 0.00 | 0.00 | 0.00 | 66 | 1063.7 |
| 20260905134920 | 67 | 315 | 0.0 | 0.0 | 0.00 | 0.00 | 0.00 | 66 | 1063.9 |
| 20260905134806 | 67 | 225 | 0.0 | 0.0 | 0.00 | 0.00 | 0.00 | 65 | 1063.9 |
| 20260905134653 | 67 | 337 | 1.0 | 0.0 | 0.00 | 0.00 | 0.00 | 65 | 1063.7 |
| 20260905134549 | 67 | 247 | 8.0 | 0.0 | 0.00 | 0.00 | 0.00 | 65 | 1063.8 |
| 20260905134443 | 67 | 315 | 6.0 | 0.0 | 0.00 | 0.00 | 0.00 | 65 | 1063.7 |
| 20260905134337 | 67 | 247 | 7.0 | 0.0 | 0.00 | 0.00 | 0.00 | 65 | 1063.7 |
| 20260905134218 | 67 | 270 | 4.0 | 0.0 | 0.00 | 0.00 | 0.00 | 67 | 1063.8 |
| 20260905134111 | 67 | 247 | 6.0 | 0.0 | 0.00 | 0.00 | 0.00 | 67 | 1063.8 |
| 20260905134007 | 67 | 270 | 17.0 | 0.0 | 0.00 | 0.00 | 0.00 | 68 | 1063.8 |
| 20260905133900 | 66 | 337 | 8.0 | 0.0 | 0.00 | 0.00 | 0.00 | 67 | 1063.8 |
| 20260905133739 | 66 | 292 | 16.0 | 0.0 | 0.00 | 0.00 | 0.00 | 68 | 1063.6 |
| 20260905133626 | 66 | 270 | 5.0 | 0.0 | 0.00 | 0.00 | 0.00 | 69 | 1063.7 |
| 20260905133505 | 66 | 337 | 6.0 | 0.0 | 0.00 | 0.00 | 0.00 | 70 | 1063.8 |
| 20260905133352 | 66 | 315 | 7.0 | 0.0 | 0.00 | 0.00 | 0.00 | 70 | 1063.7 |
| 20260905133249 | 66 | 292 | 5.0 | 0.0 | 0.00 | 0.00 | 0.00 | 70 | 1063.7 |
| 20260905133142 | 66 | 337 | 0.0 | 0.0 | 0.00 | 0.00 | 0.00 | 69 | 1063.7 |
| 20260905133036 | 66 | 315 | 7.0 | 0.0 | 0.00 | 0.00 | 0.00 | 69 | 1063.7 |
| 20260905132926 | 66 | 315 | 16.0 | 0.0 | 0.00 | 0.00 | 0.00 | 68 | 1063.7 |
| 20260905132819 | 66 | 315 | 11.0 | 0.0 | 0.00 | 0.00 | 0.00 | 67 | 1063.7 |
| 20260905132657 | 66 | 0 | 6.0 | 0.0 | 0.00 | 0.00 | 0.00 | 68 | 1063.7 |
| 20260905132545 | 66 | 292 | 11.0 | 0.0 | 0.00 | 0.00 | 0.00 | 67 | 1063.6 |
| 20260905132439 | 67 | 315 | 7.0 | 0.0 | 0.00 | 0.00 | 0.00 | 68 | 1063.6 |
| 20260905132326 | 67 | 270 | 9.0 | 0.0 | 0.00 | 0.00 | 0.00 | 68 | 1063.7 |
| 20260905132205 | 67 | 22 | 7.0 | 0.0 | 0.00 | 0.00 | 0.00 | 69 | 1063.6 |
| 20260905132052 | 67 | 0 | 9.0 | 0.0 | 0.00 | 0.00 | 0.00 | 68 | 1063.6 |
| 20260905131947 | 66 | 315 | 4.0 | 0.0 | 0.00 | 0.00 | 0.00 | 69 | 1063.7 |
| 20260905131825 | 66 | 292 | 6.0 | 0.0 | 0.00 | 0.00 | 0.00 | 68 | 1063.7 |
| 20260905131713 | 66 | 270 | 6.0 | 0.0 | 0.00 | 0.00 | 0.00 | 68 | 1063.7 |
| 20260905131600 | 66 | 315 | 6.0 | 0.0 | 0.00 | 0.00 | 0.00 | 67 | 1063.6 |
| 20260905131438 | 66 | 315 | 5.0 | 0.0 | 0.00 | 0.00 | 0.00 | 67 | 1063.5 |
| 20260905131327 | 66 | 292 | 16.0 | 0.0 | 0.00 | 0.00 | 0.00 | 67 | 1063.6 |
| 20260905131220 | 66 | 337 | 16.0 | 0.0 | 0.00 | 0.00 | 0.00 | 67 | 1063.5 |
| 20260905131107 | 67 | 337 | 8.0 | 0.0 | 0.00 | 0.00 | 0.00 | 66 | 1063.6 |
| 20260905131003 | 67 | 315 | 7.0 | 0.0 | 0.00 | 0.00 | 0.00 | 66 | 1063.6 |
| 20260905130857 | 67 | 292 | 10.0 | 0.0 | 0.00 | 0.00 | 0.00 | 66 | 1063.5 |
| 20260905130752 | 68 | 315 | 8.0 | 0.0 | 0.00 | 0.00 | 0.00 | 66 | 1063.5 |
| 20260905130638 | 68 | 315 | 9.0 | 0.0 | 0.00 | 0.00 | 0.00 | 66 | 1063.5 |
| 20260905130532 | 68 | 292 | 3.0 | 0.0 | 0.00 | 0.00 | 0.00 | 66 | 1063.3 |
| 20260905130421 | 68 | 315 | 14.0 | 0.0 | 0.00 | 0.00 | 0.00 | 65 | 1063.4 |
| 20260905130259 | 68 | 315 | 10.0 | 0.0 | 0.00 | 0.00 | 0.00 | 65 | 1063.3 |
| 20260905130145 | 68 | 337 | 0.0 | 0.0 | 0.00 | 0.00 | 0.00 | 65 | 1063.4 |
| 20260905130032 | 68 | 270 | 6.0 | 0.0 | 0.00 | 0.00 | 0.00 | 64 | 1063.3 |
| 20260905125921 | 68 | 292 | 0.0 | 0.0 | 0.00 | 0.00 | 0.00 | 64 | 1063.2 |
| 20260905125815 | 68 | 337 | 9.0 | 0.0 | 0.00 | 0.00 | 0.00 | 64 | 1063.3 |
| 20260905125710 | 68 | 315 | 0.0 | 0.0 | 0.00 | 0.00 | 0.00 | 64 | 1063.3 |
| 20260905125604 | 68 | 247 | 10.0 | 0.0 | 0.00 | 0.00 | 0.00 | 64 | 1063.2 |
| 20260905125450 | 68 | 337 | 6.0 | 0.0 | 0.00 | 0.00 | 0.00 | 64 | 1063.1 |
| 20260905125321 | 67 | 270 | 6.0 | 0.0 | 0.00 | 0.00 | 0.00 | 65 | 1063.1 |
| 20260905125208 | 67 | 270 | 4.0 | 0.0 | 0.00 | 0.00 | 0.00 | 65 | 1063.1 |
| 20260905125103 | 67 | 225 | 11.0 | 0.0 | 0.00 | 0.00 | 0.00 | 65 | 1063.1 |
| 20260905124957 | 67 | 247 | 6.0 | 0.0 | 0.00 | 0.00 | 0.00 | 65 | 1063.1 |
| 20260905124845 | 67 | 270 | 9.0 | 0.0 | 0.00 | 0.00 | 0.00 | 65 | 1063.1 |
| 20260905124725 | 67 | 292 | 7.0 | 0.0 | 0.00 | 0.00 | 0.00 | 67 | 1063.1 |
| 20260905124618 | 67 | 315 | 9.0 | 0.0 | 0.00 | 0.00 | 0.00 | 68 | 1063.0 |
| 20260905124505 | 67 | 337 | 12.0 | 0.0 | 0.00 | 0.00 | 0.00 | 69 | 1063.0 |
| 20260905124401 | 66 | 315 | 9.0 | 0.0 | 0.00 | 0.00 | 0.00 | 70 | 1063.0 |
| 20260905124254 | 66 | 292 | 4.0 | 0.0 | 0.00 | 0.00 | 0.00 | 70 | 1063.1 |
| 20260905124141 | 66 | 270 | 13.0 | 0.0 | 0.00 | 0.00 | 0.00 | 71 | 1063.0 |
| 20260905124020 | 65 | 337 | 9.0 | 0.0 | 0.00 | 0.00 | 0.00 | 72 | 1062.9 |
| 20260905123906 | 65 | 292 | 8.0 | 0.0 | 0.00 | 0.00 | 0.00 | 73 | 1063.0 |
| 20260905123754 | 65 | 0 | 10.0 | 0.0 | 0.00 | 0.00 | 0.00 | 73 | 1063.0 |
| 20260905123648 | 65 | 315 | 8.0 | 0.0 | 0.00 | 0.00 | 0.00 | 73 | 1063.0 |
| 20260905123526 | 65 | 292 | 7.0 | 0.0 | 0.00 | 0.00 | 0.00 | 73 | 1062.9 |
| 20260905123414 | 65 | 292 | 5.0 | 0.0 | 0.00 | 0.00 | 0.00 | 72 | 1063.0 |
| 20260905123308 | 65 | 337 | 8.0 | 0.0 | 0.00 | 0.00 | 0.00 | 72 | 1062.9 |
| 20260905123153 | 65 | 292 | 6.0 | 0.0 | 0.00 | 0.00 | 0.00 | 71 | 1062.9 |
| 20260905123032 | 66 | 337 | 10.0 | 0.0 | 0.00 | 0.00 | 0.00 | 69 | 1063.0 |
| 20260905122918 | 67 | 315 | 3.0 | 0.0 | 0.00 | 0.00 | 0.00 | 68 | 1062.9 |
| 20260905122805 | 67 | 292 | 11.0 | 0.0 | 0.00 | 0.00 | 0.00 | 67 | 1062.9 |
| 20260905122646 | 68 | 270 | 15.0 | 0.0 | 0.00 | 0.00 | 0.00 | 66 | 1062.9 |
| 20260905122540 | 69 | 315 | 13.0 | 0.0 | 0.00 | 0.00 | 0.00 | 64 | 1062.9 |
| 20260905122436 | 69 | 292 | 19.0 | 0.0 | 0.00 | 0.00 | 0.00 | 62 | 1062.8 |
| 20260905122325 | 69 | 292 | 14.0 | 0.0 | 0.00 | 0.00 | 0.00 | 60 | 1062.8 |
| 20260905122151 | 69 | 292 | 5.0 | 0.0 | 0.00 | 0.00 | 0.00 | 59 | 1062.7 |
| 20260905122038 | 69 | 292 | 6.0 | 0.0 | 0.00 | 0.00 | 0.00 | 60 | 1062.6 |
| 20260905121925 | 69 | 315 | 1.0 | 0.0 | 0.00 | 0.00 | 0.00 | 61 | 1062.6 |
| 20260905121811 | 69 | 45 | 14.0 | 0.0 | 0.00 | 0.00 | 0.00 | 62 | 1062.6 |
| 20260905121650 | 68 | 337 | 9.0 | 0.0 | 0.00 | 0.00 | 0.00 | 62 | 1062.6 |
| 20260905121529 | 68 | 247 | 10.0 | 0.0 | 0.00 | 0.00 | 0.00 | 64 | 1062.6 |
| 20260905121417 | 68 | 315 | 14.0 | 0.0 | 0.00 | 0.00 | 0.00 | 63 | 1062.5 |
| 20260905121303 | 67 | 315 | 21.0 | 0.0 | 0.00 | 0.00 | 0.00 | 66 | 1062.6 |
| 20260905121134 | 67 | 270 | 6.0 | 0.0 | 0.00 | 0.00 | 0.00 | 67 | 1062.5 |
| 20260905121021 | 67 | 270 | 11.0 | 0.0 | 0.00 | 0.00 | 0.00 | 68 | 1062.5 |
| 20260905120915 | 67 | 270 | 5.0 | 0.0 | 0.00 | 0.00 | 0.00 | 68 | 1062.5 |
| 20260905120754 | 66 | 315 | 12.0 | 0.0 | 0.00 | 0.00 | 0.00 | 69 | 1062.5 |
| 20260905120641 | 66 | 292 | 10.0 | 0.0 | 0.00 | 0.00 | 0.00 | 69 | 1062.5 |
| 20260905120527 | 66 | 315 | 6.0 | 0.0 | 0.00 | 0.00 | 0.00 | 69 | 1062.5 |
| 20260905120408 | 66 | 292 | 15.0 | 0.0 | 0.00 | 0.00 | 0.00 | 68 | 1062.4 |
| 20260905120301 | 65 | 0 | 9.0 | 0.0 | 0.00 | 0.00 | 0.00 | 69 | 1062.4 |
| 20260905120148 | 65 | 337 | 0.0 | 0.0 | 0.00 | 0.00 | 0.00 | 71 | 1062.4 |
| 20260905120036 | 65 | 337 | 8.0 | 0.0 | 0.00 | 0.00 | 0.00 | 72 | 1062.3 |
| 20260905115931 | 65 | 270 | 6.0 | 0.0 | 0.00 | 0.02 | 0.00 | 73 | 1062.4 |
| 20260905115825 | 65 | 270 | 9.0 | 0.0 | 0.00 | 0.02 | 0.00 | 73 | 1062.4 |
| 20260905115712 | 65 | 315 | 11.0 | 0.0 | 0.00 | 0.02 | 0.00 | 72 | 1062.3 |
| 20260905115606 | 65 | 247 | 5.0 | 0.0 | 0.00 | 0.02 | 0.00 | 72 | 1062.3 |
| 20260905115443 | 65 | 315 | 7.0 | 0.0 | 0.00 | 0.02 | 0.00 | 71 | 1062.3 |
| 20260905115331 | 65 | 315 | 9.0 | 0.0 | 0.00 | 0.02 | 0.00 | 71 | 1062.2 |
| 20260905115217 | 65 | 292 | 19.0 | 0.0 | 0.00 | 0.02 | 0.00 | 70 | 1062.3 |
| 20260905115105 | 65 | 270 | 18.0 | 0.0 | 0.00 | 0.02 | 0.00 | 72 | 1062.3 |
| 20260905114951 | 65 | 270 | 11.0 | 0.0 | 0.00 | 0.02 | 0.00 | 72 | 1062.3 |
| 20260905114836 | 66 | 292 | 16.0 | 0.0 | 0.00 | 0.02 | 0.00 | 72 | 1062.3 |
| 20260905114715 | 66 | 337 | 0.0 | 0.0 | 0.00 | 0.02 | 0.00 | 72 | 1062.3 |
| 20260905114602 | 66 | 292 | 16.0 | 0.0 | 0.00 | 0.02 | 0.00 | 73 | 1062.2 |
| 20260905114449 | 66 | 315 | 2.0 | 0.0 | 0.00 | 0.02 | 0.00 | 74 | 1062.2 |
| 20260905114344 | 66 | 315 | 8.0 | 0.0 | 0.00 | 0.02 | 0.00 | 74 | 1062.1 |
| 20260905114231 | 66 | 247 | 13.0 | 0.0 | 0.00 | 0.02 | 0.00 | 76 | 1062.2 |
| 20260905114117 | 65 | 225 | 16.0 | 0.0 | 0.00 | 0.02 | 0.00 | 79 | 1062.1 |
| 20260905114006 | 65 | 315 | 4.0 | 0.0 | 0.00 | 0.02 | 0.00 | 79 | 1062.1 |
| 20260905113858 | 64 | 337 | 4.0 | 0.0 | 0.00 | 0.02 | 0.00 | 80 | 1062.1 |
| 20260905113745 | 64 | 315 | 6.0 | 0.0 | 0.00 | 0.02 | 0.00 | 81 | 1062.1 |
| 20260905113631 | 63 | 337 | 5.0 | 0.0 | 0.00 | 0.02 | 0.00 | 81 | 1062.1 |
| 20260905113511 | 63 | 337 | 8.0 | 0.0 | 0.00 | 0.02 | 0.00 | 82 | 1062.2 |
| 20260905113405 | 62 | 315 | 5.0 | 0.0 | 0.00 | 0.02 | 0.00 | 83 | 1062.2 |
| 20260905113253 | 62 | 337 | 7.0 | 0.0 | 0.00 | 0.02 | 0.00 | 84 | 1062.2 |
| 20260905113147 | 62 | 315 | 5.0 | 0.0 | 0.00 | 0.02 | 0.00 | 84 | 1062.1 |
| 20260905113042 | 62 | 315 | 6.0 | 0.0 | 0.00 | 0.02 | 0.00 | 83 | 1062.1 |
| 20260905112937 | 61 | 315 | 6.0 | 0.0 | 0.00 | 0.02 | 0.00 | 83 | 1062.1 |
| 20260905112831 | 61 | 292 | 8.0 | 0.0 | 0.00 | 0.02 | 0.00 | 83 | 1062.0 |
| 20260905112726 | 61 | 315 | 11.0 | 0.0 | 0.00 | 0.02 | 0.00 | 83 | 1062.0 |
| 20260905112613 | 61 | 337 | 4.0 | 0.0 | 0.00 | 0.02 | 0.00 | 83 | 1062.0 |
| 20260905112500 | 61 | 0 | 7.0 | 0.0 | 0.00 | 0.02 | 0.00 | 82 | 1062.0 |
| 20260905112338 | 61 | 315 | 5.0 | 0.0 | 0.00 | 0.02 | 0.00 | 82 | 1062.1 |
| 20260905112234 | 61 | 315 | 11.0 | 0.0 | 0.00 | 0.02 | 0.00 | 82 | 1062.1 |
| 20260905112129 | 62 | 292 | 28.0 | 0.0 | 0.00 | 0.02 | 0.00 | 82 | 1062.1 |
| 20260905112015 | 62 | 315 | 10.0 | 0.0 | 0.00 | 0.02 | 0.00 | 81 | 1062.1 |
| 20260905111854 | 62 | 315 | 6.0 | 0.0 | 0.00 | 0.02 | 0.00 | 80 | 1062.0 |
| 20260905111741 | 62 | 0 | 8.0 | 0.0 | 0.00 | 0.02 | 0.00 | 79 | 1062.0 |
| 20260905111636 | 62 | 337 | 5.0 | 0.0 | 0.00 | 0.02 | 0.00 | 79 | 1062.0 |
| 20260905111516 | 63 | 0 | 7.0 | 0.0 | 0.00 | 0.02 | 0.00 | 78 | 1062.0 |
| 20260905111410 | 63 | 315 | 8.0 | 0.0 | 0.00 | 0.02 | 0.00 | 78 | 1062.0 |
| 20260905111257 | 63 | 292 | 7.0 | 0.0 | 0.00 | 0.02 | 0.00 | 76 | 1062.0 |
| 20260905111152 | 64 | 292 | 7.0 | 0.0 | 0.00 | 0.02 | 0.00 | 75 | 1061.9 |
| 20260905111023 | 64 | 292 | 11.0 | 0.0 | 0.00 | 0.02 | 0.00 | 74 | 1061.9 |
| 20260905110908 | 65 | 292 | 7.0 | 0.0 | 0.00 | 0.02 | 0.00 | 73 | 1061.8 |
| 20260905110740 | 65 | 270 | 12.0 | 0.0 | 0.00 | 0.02 | 0.00 | 71 | 1061.8 |
| 20260905110635 | 65 | 315 | 9.0 | 0.0 | 0.00 | 0.02 | 0.00 | 69 | 1061.7 |
| 20260905110520 | 66 | 270 | 9.0 | 0.0 | 0.00 | 0.02 | 0.00 | 68 | 1061.6 |
| 20260905110359 | 66 | 292 | 9.0 | 0.0 | 0.00 | 0.02 | 0.00 | 69 | 1061.6 |
| 20260905110240 | 66 | 292 | 9.0 | 0.0 | 0.00 | 0.02 | 0.00 | 70 | 1061.5 |
| 20260905110133 | 66 | 315 | 9.0 | 0.0 | 0.00 | 0.02 | 0.00 | 69 | 1061.5 |
| 20260905110020 | 66 | 315 | 11.0 | 0.0 | 0.00 | 0.02 | 0.00 | 70 | 1061.6 |
| 20260905105850 | 66 | 292 | 13.0 | 0.0 | 0.00 | 0.02 | 0.00 | 70 | 1061.4 |
| 20260905105736 | 67 | 292 | 12.0 | 0.0 | 0.00 | 0.02 | 0.00 | 70 | 1061.4 |
| 20260905105618 | 67 | 292 | 7.0 | 0.0 | 0.00 | 0.02 | 0.00 | 69 | 1061.5 |
| 20260905105511 | 69 | 292 | 11.0 | 0.0 | 0.00 | 0.02 | 0.00 | 68 | 1061.5 |
| 20260905105350 | 69 | 225 | 11.0 | 0.0 | 0.00 | 0.02 | 0.00 | 66 | 1061.5 |
| 20260905105244 | 70 | 315 | 13.0 | 0.0 | 0.00 | 0.02 | 0.00 | 63 | 1061.4 |
| 20260905105115 | 71 | 292 | 8.0 | 0.0 | 0.00 | 0.02 | 0.00 | 60 | 1061.3 |
| 20260905105003 | 71 | 0 | 17.0 | 0.0 | 0.00 | 0.02 | 0.00 | 60 | 1061.1 |
| 20260905104851 | 71 | 0 | 4.0 | 0.0 | 0.00 | 0.02 | 0.00 | 60 | 1061.3 |
| 20260905104746 | 71 | 112 | 10.0 | 0.0 | 0.00 | 0.02 | 0.00 | 60 | 1061.2 |
| 20260905104634 | 71 | 315 | 12.0 | 0.0 | 0.00 | 0.02 | 0.00 | 60 | 1061.2 |
| 20260905104526 | 72 | 247 | 12.0 | 0.0 | 0.00 | 0.02 | 0.00 | 60 | 1061.1 |
| 20260905104405 | 72 | 270 | 7.0 | 0.0 | 0.00 | 0.02 | 0.00 | 59 | 1061.1 |
| 20260905104254 | 72 | 0 | 0.0 | 0.0 | 0.00 | 0.02 | 0.00 | 58 | 1061.0 |
| 20260905104149 | 71 | 292 | 17.0 | 0.0 | 0.00 | 0.02 | 0.00 | 58 | 1061.1 |
| 20260905104045 | 71 | 315 | 12.0 | 0.0 | 0.00 | 0.02 | 0.00 | 58 | 1061.1 |
| 20260905103936 | 71 | 315 | 6.0 | 0.0 | 0.00 | 0.02 | 0.00 | 58 | 1061.1 |
| 20260905103815 | 71 | 315 | 11.0 | 0.0 | 0.00 | 0.02 | 0.00 | 58 | 1061.0 |
| 20260905103654 | 71 | 337 | 7.0 | 0.0 | 0.00 | 0.02 | 0.00 | 58 | 1061.0 |
| 20260905103540 | 71 | 337 | 12.0 | 0.0 | 0.00 | 0.02 | 0.00 | 58 | 1061.0 |
| 20260905103419 | 71 | 292 | 8.0 | 0.0 | 0.00 | 0.02 | 0.00 | 58 | 1061.0 |
| 20260905103257 | 71 | 315 | 13.0 | 0.0 | 0.00 | 0.02 | 0.00 | 60 | 1061.0 |
| 20260905103135 | 70 | 292 | 6.0 | 0.0 | 0.00 | 0.02 | 0.00 | 60 | 1061.0 |
| 20260905102959 | 70 | 292 | 0.0 | 0.0 | 0.00 | 0.02 | 0.00 | 59 | 1061.0 |
| 20260905102853 | 70 | 315 | 7.0 | 0.0 | 0.00 | 0.02 | 0.00 | 59 | 1061.0 |
| 20260905102739 | 70 | 337 | 7.0 | 0.0 | 0.00 | 0.02 | 0.00 | 61 | 1060.8 |
| 20260905102618 | 71 | 292 | 11.0 | 0.0 | 0.00 | 0.02 | 0.00 | 62 | 1060.8 |
| 20260905102444 | 71 | 292 | 11.0 | 0.0 | 0.00 | 0.02 | 0.00 | 61 | 1060.8 |
| 20260905102338 | 72 | 270 | 5.0 | 0.0 | 0.00 | 0.02 | 0.00 | 61 | 1060.8 |
| 20260905102233 | 72 | 337 | 12.0 | 0.0 | 0.00 | 0.02 | 0.00 | 62 | 1060.8 |
| 20260905102119 | 72 | 337 | 6.0 | 0.0 | 0.00 | 0.02 | 0.00 | 61 | 1060.8 |
| 20260905102007 | 72 | 247 | 8.0 | 0.0 | 0.00 | 0.02 | 0.00 | 61 | 1060.8 |
| 20260905101852 | 72 | 270 | 0.0 | 0.0 | 0.00 | 0.02 | 0.00 | 60 | 1060.8 |
| 20260905101731 | 72 | 315 | 12.0 | 0.0 | 0.00 | 0.02 | 0.00 | 60 | 1060.8 |
| 20260905101602 | 72 | 337 | 8.0 | 0.0 | 0.00 | 0.02 | 0.00 | 60 | 1060.7 |
| 20260905101449 | 72 | 337 | 3.0 | 0.0 | 0.00 | 0.02 | 0.00 | 59 | 1060.8 |
| 20260905101337 | 72 | 0 | 7.0 | 0.0 | 0.00 | 0.02 | 0.00 | 58 | 1060.7 |
| 20260905101225 | 72 | 292 | 6.0 | 0.0 | 0.00 | 0.02 | 0.00 | 57 | 1060.8 |
| 20260905101119 | 73 | 337 | 4.0 | 0.0 | 0.00 | 0.02 | 0.00 | 57 | 1060.8 |
| 20260905101014 | 73 | 247 | 14.0 | 0.0 | 0.00 | 0.02 | 0.00 | 58 | 1060.7 |
| 20260905100910 | 73 | 247 | 8.0 | 0.0 | 0.00 | 0.02 | 0.00 | 58 | 1060.7 |
| 20260905100742 | 73 | 292 | 0.0 | 0.0 | 0.00 | 0.02 | 0.00 | 58 | 1060.7 |
| 20260905100627 | 73 | 315 | 11.0 | 0.0 | 0.00 | 0.02 | 0.00 | 58 | 1060.7 |
| 20260905100505 | 73 | 315 | 6.0 | 0.0 | 0.00 | 0.02 | 0.00 | 58 | 1060.7 |
| 20260905100326 | 73 | 292 | 24.0 | 0.0 | 0.00 | 0.02 | 0.00 | 58 | 1060.7 |
| 20260905100159 | 72 | 337 | 0.0 | 0.0 | 0.00 | 0.02 | 0.00 | 59 | 1060.7 |
| 20260905100044 | 72 | 247 | 3.0 | 0.0 | 0.00 | 0.02 | 0.00 | 59 | 1060.7 |
| 20260905095925 | 72 | 270 | 5.0 | 0.0 | 0.00 | 0.02 | 0.00 | 59 | 1060.7 |
| 20260905095809 | 72 | 292 | 7.0 | 0.0 | 0.00 | 0.02 | 0.00 | 59 | 1060.6 |
| 20260905095659 | 71 | 337 | 9.0 | 0.0 | 0.00 | 0.02 | 0.00 | 60 | 1060.6 |
| 20260905095554 | 71 | 292 | 6.0 | 0.0 | 0.00 | 0.02 | 0.00 | 60 | 1060.6 |
| 20260905095435 | 71 | 292 | 10.0 | 0.0 | 0.00 | 0.02 | 0.00 | 60 | 1060.6 |
| 20260905095319 | 71 | 315 | 14.0 | 0.0 | 0.00 | 0.02 | 0.00 | 61 | 1060.6 |
| 20260905095207 | 70 | 315 | 15.0 | 0.0 | 0.00 | 0.02 | 0.00 | 62 | 1060.5 |
| 20260905095053 | 70 | 247 | 14.0 | 0.0 | 0.00 | 0.02 | 0.00 | 64 | 1060.5 |
| 20260905094932 | 69 | 270 | 21.0 | 0.0 | 0.00 | 0.02 | 0.00 | 64 | 1060.5 |
| 20260905094819 | 69 | 292 | 7.0 | 0.0 | 0.00 | 0.02 | 0.00 | 64 | 1060.5 |
| 20260905094657 | 68 | 315 | 9.0 | 0.0 | 0.00 | 0.02 | 0.00 | 63 | 1060.5 |
| 20260905094530 | 68 | 337 | 8.0 | 0.0 | 0.00 | 0.02 | 0.00 | 63 | 1060.5 |
| 20260905094423 | 68 | 270 | 15.0 | 0.0 | 0.00 | 0.02 | 0.00 | 63 | 1060.5 |
| 20260905094301 | 68 | 22 | 17.0 | 0.0 | 0.00 | 0.02 | 0.00 | 64 | 1060.4 |
| 20260905094149 | 68 | 315 | 13.0 | 0.0 | 0.00 | 0.02 | 0.00 | 65 | 1060.4 |
| 20260905094035 | 68 | 292 | 7.0 | 0.0 | 0.00 | 0.02 | 0.00 | 65 | 1060.3 |
| 20260905093913 | 67 | 292 | 17.0 | 0.0 | 0.00 | 0.02 | 0.00 | 68 | 1060.3 |
| 20260905093800 | 67 | 315 | 7.0 | 0.0 | 0.00 | 0.02 | 0.00 | 68 | 1060.3 |
| 20260905093656 | 67 | 337 | 8.0 | 0.0 | 0.00 | 0.02 | 0.00 | 68 | 1060.3 |
| 20260905093549 | 66 | 270 | 11.0 | 0.0 | 0.00 | 0.02 | 0.00 | 69 | 1060.4 |
| 20260905093419 | 66 | 292 | 12.0 | 0.0 | 0.00 | 0.02 | 0.00 | 70 | 1060.2 |
| 20260905093301 | 66 | 292 | 17.0 | 0.0 | 0.00 | 0.02 | 0.00 | 71 | 1060.2 |
| 20260905093156 | 66 | 315 | 4.0 | 0.0 | 0.00 | 0.02 | 0.00 | 70 | 1060.1 |
| 20260905093042 | 67 | 315 | 2.0 | 0.0 | 0.00 | 0.02 | 0.00 | 68 | 1060.1 |
| 20260905092920 | 67 | 292 | 6.0 | 0.0 | 0.00 | 0.02 | 0.00 | 68 | 1060.1 |
| 20260905092751 | 69 | 315 | 14.0 | 0.0 | 0.00 | 0.02 | 0.00 | 67 | 1060.1 |
| 20260905092629 | 69 | 337 | 3.0 | 0.0 | 0.00 | 0.02 | 0.00 | 66 | 1060.1 |
| 20260905092515 | 71 | 337 | 9.0 | 0.0 | 0.00 | 0.02 | 0.00 | 62 | 1060.1 |
| 20260905092348 | 72 | 315 | 2.0 | 0.0 | 0.00 | 0.02 | 0.00 | 61 | 1060.1 |
| 20260905092226 | 73 | 247 | 16.0 | 0.0 | 0.00 | 0.02 | 0.00 | 59 | 1060.1 |
| 20260905092121 | 74 | 337 | 5.0 | 0.0 | 0.00 | 0.02 | 0.00 | 57 | 1060.0 |
| 20260905092001 | 75 | 315 | 6.0 | 0.0 | 0.00 | 0.02 | 0.00 | 55 | 1059.9 |
| 20260905091855 | 74 | 247 | 12.0 | 0.0 | 0.00 | 0.02 | 0.00 | 54 | 1059.8 |
| 20260905091733 | 74 | 247 | 23.0 | 0.0 | 0.00 | 0.02 | 0.00 | 54 | 1059.9 |
| 20260905091621 | 74 | 292 | 14.0 | 0.0 | 0.00 | 0.02 | 0.00 | 54 | 1059.9 |
| 20260905091515 | 74 | 270 | 13.0 | 0.0 | 0.00 | 0.02 | 0.00 | 55 | 1059.7 |
| 20260905091354 | 74 | 292 | 9.0 | 0.0 | 0.00 | 0.02 | 0.00 | 55 | 1059.8 |
| 20260905091242 | 74 | 292 | 8.0 | 0.0 | 0.00 | 0.02 | 0.00 | 55 | 1059.8 |
| 20260905091138 | 74 | 292 | 8.0 | 0.0 | 0.00 | 0.02 | 0.00 | 54 | 1059.7 |
| 20260905091030 | 74 | 270 | 13.0 | 0.0 | 0.00 | 0.02 | 0.00 | 55 | 1059.7 |
| 20260905090903 | 74 | 202 | 17.0 | 0.0 | 0.00 | 0.02 | 0.00 | 56 | 1059.7 |
| 20260905090756 | 74 | 315 | 9.0 | 0.0 | 0.00 | 0.02 | 0.00 | 56 | 1059.7 |
| 20260905090636 | 74 | 292 | 5.0 | 0.0 | 0.00 | 0.02 | 0.00 | 56 | 1059.7 |
| 20260905090530 | 74 | 292 | 8.0 | 0.0 | 0.00 | 0.02 | 0.00 | 56 | 1059.7 |
| 20260905090410 | 74 | 247 | 8.0 | 0.0 | 0.00 | 0.02 | 0.00 | 58 | 1059.7 |
| 20260905090304 | 73 | 337 | 7.0 | 0.0 | 0.00 | 0.02 | 0.00 | 58 | 1059.6 |
| 20260905090143 | 73 | 270 | 9.0 | 0.0 | 0.00 | 0.02 | 0.00 | 59 | 1059.6 |
| 20260905090039 | 73 | 202 | 5.0 | 0.0 | 0.00 | 0.02 | 0.00 | 60 | 1059.6 |
| 20260905085934 | 72 | 270 | 6.0 | 0.0 | 0.00 | 0.08 | 0.00 | 61 | 1059.6 |
| 20260905085820 | 72 | 292 | 8.0 | 0.0 | 0.00 | 0.08 | 0.00 | 62 | 1059.6 |
| 20260905085651 | 71 | 315 | 3.0 | 0.0 | 0.00 | 0.08 | 0.00 | 61 | 1059.6 |
| 20260905085522 | 72 | 292 | 12.0 | 0.0 | 0.00 | 0.08 | 0.00 | 61 | 1059.6 |
| 20260905085408 | 72 | 270 | 14.0 | 0.0 | 0.00 | 0.08 | 0.00 | 62 | 1059.5 |
| 20260905085248 | 71 | 315 | 13.0 | 0.0 | 0.00 | 0.08 | 0.00 | 61 | 1059.5 |
| 20260905085119 | 71 | 270 | 10.0 | 0.0 | 0.00 | 0.08 | 0.00 | 62 | 1059.6 |
| 20260905085006 | 71 | 315 | 9.0 | 0.0 | 0.00 | 0.08 | 0.00 | 62 | 1059.5 |
| 20260905084859 | 70 | 337 | 10.0 | 0.0 | 0.00 | 0.08 | 0.00 | 63 | 1059.5 |
| 20260905084748 | 70 | 292 | 10.0 | 0.0 | 0.00 | 0.08 | 0.00 | 62 | 1059.5 |
| 20260905084635 | 70 | 292 | 7.0 | 0.0 | 0.00 | 0.08 | 0.00 | 61 | 1059.5 |
| 20260905084521 | 71 | 315 | 17.0 | 0.0 | 0.00 | 0.08 | 0.00 | 61 | 1059.4 |
| 20260905084408 | 71 | 292 | 2.0 | 0.0 | 0.00 | 0.08 | 0.00 | 62 | 1059.4 |
| 20260905084247 | 72 | 337 | 6.0 | 0.0 | 0.00 | 0.08 | 0.00 | 62 | 1059.3 |
| 20260905084142 | 72 | 315 | 4.0 | 0.0 | 0.00 | 0.08 | 0.00 | 62 | 1059.4 |
| 20260905084023 | 71 | 292 | 14.0 | 0.0 | 0.00 | 0.08 | 0.00 | 63 | 1059.4 |
| 20260905083907 | 71 | 270 | 11.0 | 0.0 | 0.00 | 0.08 | 0.00 | 65 | 1059.3 |
| 20260905083755 | 70 | 270 | 11.0 | 0.0 | 0.00 | 0.08 | 0.00 | 66 | 1059.3 |
| 20260905083648 | 69 | 292 | 18.0 | 0.0 | 0.00 | 0.08 | 0.00 | 68 | 1059.4 |
| 20260905083520 | 69 | 292 | 10.0 | 0.0 | 0.00 | 0.08 | 0.00 | 70 | 1059.3 |
| 20260905083417 | 68 | 0 | 2.0 | 0.0 | 0.00 | 0.08 | 0.00 | 71 | 1059.4 |
| 20260905083309 | 67 | 292 | 6.0 | 0.0 | 0.00 | 0.08 | 0.00 | 72 | 1059.3 |
| 20260905083155 | 66 | 292 | 4.0 | 0.0 | 0.00 | 0.08 | 0.00 | 72 | 1059.3 |
| 20260905083035 | 66 | 292 | 5.0 | 0.0 | 0.00 | 0.08 | 0.00 | 73 | 1059.3 |
| 20260905082928 | 65 | 337 | 0.0 | 0.0 | 0.00 | 0.08 | 0.00 | 72 | 1059.3 |
| 20260905082805 | 65 | 315 | 9.0 | 0.0 | 0.00 | 0.08 | 0.00 | 72 | 1059.3 |
| 20260905082644 | 65 | 292 | 11.0 | 0.0 | 0.00 | 0.08 | 0.00 | 72 | 1059.3 |
| 20260905082522 | 65 | 337 | 0.0 | 0.0 | 0.00 | 0.08 | 0.00 | 73 | 1059.2 |
| 20260905082355 | 65 | 225 | 8.0 | 0.0 | 0.00 | 0.08 | 0.00 | 73 | 1059.3 |
| 20260905082248 | 65 | 337 | 10.0 | 0.0 | 0.00 | 0.08 | 0.00 | 74 | 1059.3 |
| 20260905082136 | 64 | 135 | 7.0 | 0.0 | 0.00 | 0.08 | 0.00 | 76 | 1059.3 |
| 20260905082030 | 64 | 315 | 5.0 | 0.0 | 0.00 | 0.08 | 0.00 | 76 | 1059.3 |
| 20260905081917 | 64 | 337 | 8.0 | 0.0 | 0.00 | 0.08 | 0.00 | 76 | 1059.3 |
| 20260905081756 | 64 | 315 | 4.0 | 0.0 | 0.00 | 0.08 | 0.00 | 76 | 1059.3 |
| 20260905081642 | 64 | 315 | 8.0 | 0.0 | 0.00 | 0.08 | 0.00 | 75 | 1059.3 |
| 20260905081532 | 64 | 315 | 5.0 | 0.0 | 0.00 | 0.08 | 0.00 | 74 | 1059.4 |
| 20260905081424 | 65 | 292 | 6.0 | 0.0 | 0.00 | 0.08 | 0.00 | 73 | 1059.3 |
| 20260905081306 | 65 | 315 | 16.0 | 0.0 | 0.00 | 0.08 | 0.00 | 72 | 1059.4 |
| 20260905081158 | 66 | 315 | 8.0 | 0.0 | 0.00 | 0.08 | 0.00 | 70 | 1059.3 |
| 20260905081045 | 66 | 337 | 0.0 | 0.0 | 0.00 | 0.08 | 0.00 | 69 | 1059.3 |
| 20260905080939 | 66 | 337 | 14.0 | 0.0 | 0.00 | 0.08 | 0.00 | 68 | 1059.2 |
| 20260905080820 | 67 | 292 | 15.0 | 0.0 | 0.00 | 0.08 | 0.00 | 69 | 1059.1 |
| 20260905080715 | 67 | 247 | 5.0 | 0.0 | 0.00 | 0.08 | 0.00 | 68 | 1059.0 |
| 20260905080609 | 67 | 292 | 8.0 | 0.0 | 0.00 | 0.08 | 0.00 | 67 | 1058.9 |
| 20260905080455 | 68 | 315 | 3.0 | 0.0 | 0.00 | 0.08 | 0.00 | 65 | 1058.8 |
| 20260905080342 | 68 | 292 | 11.0 | 0.0 | 0.00 | 0.08 | 0.00 | 64 | 1058.9 |
| 20260905080228 | 68 | 315 | 14.0 | 0.0 | 0.00 | 0.08 | 0.00 | 64 | 1058.8 |
| 20260905080059 | 69 | 0 | 8.0 | 0.0 | 0.00 | 0.08 | 0.00 | 64 | 1058.8 |
| 20260905075945 | 69 | 292 | 7.0 | 0.0 | 0.00 | 0.18 | 0.00 | 64 | 1058.8 |
| 20260905075823 | 69 | 292 | 4.0 | 0.0 | 0.00 | 0.18 | 0.00 | 63 | 1058.8 |
| 20260905075710 | 70 | 337 | 7.0 | 0.0 | 0.00 | 0.18 | 0.00 | 62 | 1058.8 |
| 20260905075557 | 71 | 315 | 8.0 | 0.0 | 0.00 | 0.18 | 0.00 | 60 | 1058.8 |
| 20260905075438 | 71 | 292 | 0.0 | 0.0 | 0.00 | 0.18 | 0.00 | 60 | 1058.8 |
| 20260905075332 | 71 | 292 | 13.0 | 0.0 | 0.00 | 0.18 | 0.00 | 59 | 1058.8 |
| 20260905075219 | 71 | 292 | 12.0 | 0.0 | 0.00 | 0.18 | 0.00 | 60 | 1058.8 |
| 20260905075100 | 71 | 270 | 16.0 | 0.0 | 0.00 | 0.18 | 0.00 | 61 | 1058.7 |
| 20260905074938 | 70 | 315 | 9.0 | 0.0 | 0.00 | 0.18 | 0.00 | 61 | 1058.7 |
| 20260905074816 | 69 | 270 | 6.0 | 0.0 | 0.00 | 0.18 | 0.00 | 64 | 1058.7 |
| 20260905074657 | 69 | 337 | 4.0 | 0.0 | 0.00 | 0.18 | 0.00 | 65 | 1058.7 |
| 20260905074550 | 68 | 315 | 12.0 | 0.0 | 0.00 | 0.18 | 0.00 | 66 | 1058.6 |
| 20260905074445 | 68 | 292 | 9.0 | 0.0 | 0.00 | 0.18 | 0.00 | 65 | 1058.6 |
| 20260905074338 | 67 | 337 | 6.0 | 0.0 | 0.00 | 0.18 | 0.00 | 65 | 1058.6 |
| 20260905074209 | 68 | 337 | 4.0 | 0.0 | 0.00 | 0.18 | 0.00 | 65 | 1058.7 |
| 20260905074055 | 68 | 0 | 2.0 | 0.0 | 0.00 | 0.18 | 0.00 | 65 | 1058.6 |
| 20260905073951 | 69 | 315 | 8.0 | 0.0 | 0.00 | 0.18 | 0.00 | 66 | 1058.7 |
| 20260905073846 | 69 | 270 | 10.0 | 0.0 | 0.00 | 0.18 | 0.00 | 66 | 1058.7 |
| 20260905073733 | 69 | 292 | 5.0 | 0.0 | 0.00 | 0.18 | 0.00 | 65 | 1058.7 |
| 20260905073621 | 70 | 315 | 4.0 | 0.0 | 0.00 | 0.18 | 0.00 | 64 | 1058.7 |
| 20260905073508 | 70 | 315 | 8.0 | 0.0 | 0.00 | 0.18 | 0.00 | 64 | 1058.6 |
| 20260905073400 | 70 | 337 | 12.0 | 0.0 | 0.00 | 0.18 | 0.00 | 64 | 1058.6 |
| 20260905073247 | 70 | 337 | 10.0 | 0.0 | 0.00 | 0.18 | 0.00 | 64 | 1058.5 |
| 20260905073125 | 70 | 270 | 15.0 | 0.0 | 0.00 | 0.18 | 0.00 | 65 | 1058.5 |
| 20260905073012 | 69 | 292 | 7.0 | 0.0 | 0.00 | 0.18 | 0.00 | 65 | 1058.5 |
| 20260905072858 | 69 | 337 | 0.0 | 0.0 | 0.00 | 0.18 | 0.00 | 64 | 1058.5 |
| 20260905072745 | 69 | 315 | 6.0 | 0.0 | 0.00 | 0.18 | 0.00 | 62 | 1058.5 |
| 20260905072633 | 70 | 337 | 6.0 | 0.0 | 0.00 | 0.18 | 0.00 | 61 | 1058.4 |
| 20260905072520 | 71 | 292 | 18.0 | 0.0 | 0.00 | 0.18 | 0.00 | 60 | 1058.5 |
| 20260905072415 | 72 | 292 | 9.0 | 0.0 | 0.00 | 0.18 | 0.00 | 61 | 1058.5 |
| 20260905072305 | 72 | 292 | 9.0 | 0.0 | 0.00 | 0.18 | 0.00 | 61 | 1058.4 |
| 20260905072157 | 72 | 292 | 10.0 | 0.0 | 0.00 | 0.18 | 0.00 | 62 | 1058.4 |
| 20260905072044 | 72 | 292 | 7.0 | 0.0 | 0.00 | 0.18 | 0.00 | 61 | 1058.5 |
| 20260905071927 | 71 | 337 | 16.0 | 0.0 | 0.00 | 0.18 | 0.00 | 62 | 1058.4 |
| 20260905071818 | 71 | 292 | 6.0 | 0.0 | 0.00 | 0.18 | 0.00 | 62 | 1058.4 |
| 20260905071705 | 71 | 292 | 9.0 | 0.0 | 0.00 | 0.18 | 0.00 | 63 | 1058.4 |
| 20260905071600 | 71 | 270 | 9.0 | 0.0 | 0.00 | 0.18 | 0.00 | 63 | 1058.4 |
| 20260905071448 | 70 | 337 | 16.0 | 0.0 | 0.00 | 0.18 | 0.00 | 64 | 1058.4 |
| 20260905071341 | 70 | 315 | 9.0 | 0.0 | 0.00 | 0.18 | 0.00 | 64 | 1058.4 |
| 20260905071223 | 69 | 337 | 0.0 | 0.0 | 0.00 | 0.18 | 0.00 | 65 | 1058.5 |
| 20260905071118 | 69 | 337 | 9.0 | 0.0 | 0.00 | 0.18 | 0.00 | 66 | 1058.4 |
| 20260905071010 | 68 | 292 | 7.0 | 0.0 | 0.00 | 0.18 | 0.00 | 67 | 1058.4 |
| 20260905070851 | 67 | 315 | 6.0 | 0.0 | 0.00 | 0.18 | 0.00 | 68 | 1058.4 |
| 20260905070736 | 66 | 270 | 5.0 | 0.0 | 0.00 | 0.18 | 0.00 | 69 | 1058.4 |
| 20260905070622 | 65 | 292 | 10.0 | 0.0 | 0.00 | 0.18 | 0.00 | 69 | 1058.4 |
| 20260905070510 | 65 | 315 | 6.0 | 0.0 | 0.00 | 0.18 | 0.00 | 69 | 1058.5 |
| 20260905070357 | 65 | 247 | 6.0 | 0.0 | 0.00 | 0.18 | 0.00 | 69 | 1058.5 |
| 20260905070243 | 65 | 337 | 7.0 | 0.0 | 0.00 | 0.18 | 0.00 | 68 | 1058.5 |
| 20260905070129 | 65 | 315 | 8.0 | 0.0 | 0.00 | 0.18 | 0.00 | 69 | 1058.5 |
| 20260905070016 | 65 | 315 | 15.0 | 0.0 | 0.00 | 0.18 | 0.00 | 68 | 1058.5 |
| 20260905065903 | 66 | 315 | 6.0 | 0.0 | 0.00 | 0.51 | 0.00 | 69 | 1058.4 |
| 20260905065745 | 66 | 315 | 4.0 | 0.0 | 0.00 | 0.51 | 0.00 | 69 | 1058.4 |
| 20260905065638 | 66 | 315 | 9.0 | 0.0 | 0.00 | 0.51 | 0.00 | 70 | 1058.4 |
| 20260905065525 | 66 | 292 | 10.0 | 0.0 | 0.00 | 0.51 | 0.00 | 70 | 1058.5 |
| 20260905065413 | 66 | 292 | 4.0 | 0.0 | 0.00 | 0.51 | 0.00 | 69 | 1058.4 |
| 20260905065307 | 66 | 292 | 6.0 | 0.0 | 0.00 | 0.51 | 0.00 | 68 | 1058.3 |
| 20260905065155 | 66 | 292 | 9.0 | 0.0 | 0.00 | 0.51 | 0.00 | 68 | 1058.4 |
| 20260905065049 | 66 | 270 | 18.0 | 0.0 | 0.00 | 0.51 | 0.00 | 68 | 1058.3 |
| 20260905064943 | 67 | 292 | 12.0 | 0.0 | 0.00 | 0.51 | 0.00 | 68 | 1058.3 |
| 20260905064822 | 67 | 292 | 9.0 | 0.0 | 0.00 | 0.51 | 0.00 | 68 | 1058.3 |
| 20260905064717 | 67 | 292 | 9.0 | 0.0 | 0.00 | 0.51 | 0.00 | 68 | 1058.2 |
| 20260905064612 | 67 | 315 | 5.0 | 0.0 | 0.00 | 0.51 | 0.00 | 68 | 1058.3 |
| 20260905064501 | 68 | 315 | 5.0 | 0.0 | 0.00 | 0.51 | 0.00 | 68 | 1058.2 |
| 20260905064353 | 68 | 270 | 4.0 | 0.0 | 0.00 | 0.51 | 0.00 | 68 | 1058.1 |
| 20260905064232 | 68 | 270 | 13.0 | 0.0 | 0.00 | 0.51 | 0.00 | 67 | 1058.2 |
| 20260905064118 | 68 | 270 | 5.0 | 0.0 | 0.00 | 0.51 | 0.00 | 67 | 1058.2 |
| 20260905063958 | 68 | 292 | 6.0 | 0.0 | 0.00 | 0.51 | 0.00 | 68 | 1058.2 |
| 20260905063821 | 68 | 292 | 4.0 | 0.0 | 0.00 | 0.51 | 0.00 | 68 | 1058.2 |
| 20260905063710 | 68 | 315 | 10.0 | 0.0 | 0.00 | 0.51 | 0.00 | 68 | 1058.1 |
| 20260905063603 | 68 | 337 | 7.0 | 0.0 | 0.00 | 0.51 | 0.00 | 67 | 1058.0 |
| 20260905063500 | 68 | 315 | 2.0 | 0.0 | 0.00 | 0.51 | 0.00 | 67 | 1058.1 |
| 20260905063353 | 68 | 315 | 7.0 | 0.0 | 0.00 | 0.51 | 0.00 | 66 | 1058.0 |
| 20260905063248 | 68 | 270 | 13.0 | 0.0 | 0.00 | 0.51 | 0.00 | 67 | 1058.0 |
| 20260905063127 | 69 | 292 | 9.0 | 0.0 | 0.00 | 0.51 | 0.00 | 67 | 1058.0 |
| 20260905063005 | 69 | 270 | 8.0 | 0.0 | 0.00 | 0.51 | 0.00 | 67 | 1058.0 |
| 20260905062852 | 69 | 315 | 13.0 | 0.0 | 0.00 | 0.51 | 0.00 | 68 | 1057.9 |
| 20260905062739 | 68 | 337 | 0.0 | 0.0 | 0.00 | 0.51 | 0.00 | 68 | 1057.9 |
| 20260905062636 | 68 | 337 | 6.0 | 0.0 | 0.00 | 0.51 | 0.00 | 68 | 1058.0 |
| 20260905062528 | 67 | 337 | 6.0 | 0.0 | 0.00 | 0.51 | 0.00 | 68 | 1058.0 |
| 20260905062418 | 67 | 292 | 13.0 | 0.0 | 0.00 | 0.51 | 0.00 | 69 | 1057.8 |
| 20260905062310 | 66 | 0 | 3.0 | 0.0 | 0.00 | 0.51 | 0.00 | 69 | 1057.9 |
| 20260905062148 | 66 | 315 | 2.0 | 0.0 | 0.00 | 0.51 | 0.00 | 69 | 1057.8 |
| 20260905062036 | 66 | 292 | 5.0 | 0.0 | 0.00 | 0.51 | 0.00 | 68 | 1057.9 |
| 20260905061915 | 66 | 315 | 6.0 | 0.0 | 0.00 | 0.51 | 0.00 | 67 | 1057.8 |
| 20260905061746 | 67 | 315 | 14.0 | 0.0 | 0.00 | 0.51 | 0.00 | 68 | 1057.8 |
| 20260905061624 | 67 | 337 | 11.0 | 0.0 | 0.00 | 0.51 | 0.00 | 69 | 1057.8 |
| 20260905061511 | 67 | 292 | 8.0 | 0.0 | 0.00 | 0.51 | 0.00 | 69 | 1057.8 |
| 20260905061350 | 68 | 315 | 19.0 | 0.0 | 0.00 | 0.51 | 0.00 | 68 | 1057.9 |
| 20260905061236 | 67 | 292 | 6.0 | 0.0 | 0.00 | 0.51 | 0.00 | 68 | 1057.8 |
| 20260905061118 | 67 | 0 | 5.0 | 0.0 | 0.00 | 0.51 | 0.00 | 69 | 1057.7 |
| 20260905061010 | 67 | 315 | 9.0 | 0.0 | 0.00 | 0.51 | 0.00 | 69 | 1057.8 |
| 20260905060849 | 66 | 270 | 4.0 | 0.0 | 0.00 | 0.51 | 0.00 | 69 | 1057.8 |
| 20260905060720 | 66 | 292 | 3.0 | 0.0 | 0.00 | 0.51 | 0.00 | 70 | 1057.8 |
| 20260905060607 | 66 | 315 | 6.0 | 0.0 | 0.00 | 0.51 | 0.00 | 71 | 1057.9 |
| 20260905060502 | 66 | 292 | 5.0 | 0.0 | 0.00 | 0.51 | 0.00 | 71 | 1057.8 |
| 20260905060349 | 66 | 270 | 14.0 | 0.0 | 0.00 | 0.51 | 0.00 | 72 | 1057.8 |
| 20260905060236 | 66 | 270 | 11.0 | 0.0 | 0.00 | 0.51 | 0.00 | 72 | 1057.8 |
| 20260905060123 | 66 | 315 | 4.0 | 0.0 | 0.00 | 0.51 | 0.00 | 73 | 1057.8 |
| 20260905060017 | 65 | 270 | 0.0 | 0.0 | 0.00 | 0.51 | 0.00 | 73 | 1057.8 |
| 20260905055905 | 65 | 315 | 8.0 | 0.0 | 0.00 | 0.71 | 0.00 | 74 | 1057.8 |
| 20260905055800 | 65 | 337 | 2.0 | 0.0 | 0.00 | 0.71 | 0.00 | 74 | 1057.7 |
| 20260905055654 | 65 | 315 | 0.0 | 0.0 | 0.00 | 0.71 | 0.00 | 74 | 1057.6 |
| 20260905055549 | 65 | 315 | 9.0 | 0.0 | 0.00 | 0.71 | 0.00 | 75 | 1057.8 |
| 20260905055429 | 64 | 270 | 0.0 | 0.0 | 0.00 | 0.71 | 0.00 | 75 | 1057.8 |
| 20260905055314 | 64 | 337 | 5.0 | 0.0 | 0.00 | 0.71 | 0.00 | 76 | 1057.8 |
| 20260905055202 | 63 | 315 | 13.0 | 0.0 | 0.00 | 0.71 | 0.00 | 77 | 1057.6 |
| 20260905055056 | 63 | 337 | 3.0 | 0.0 | 0.00 | 0.71 | 0.00 | 77 | 1057.6 |
| 20260905054952 | 63 | 0 | 13.0 | 0.0 | 0.00 | 0.71 | 0.00 | 77 | 1057.7 |
| 20260905054845 | 63 | 292 | 14.0 | 0.0 | 0.00 | 0.71 | 0.00 | 77 | 1057.7 |
| 20260905054724 | 63 | 270 | 6.0 | 0.0 | 0.00 | 0.71 | 0.00 | 77 | 1057.7 |
| 20260905054611 | 63 | 315 | 6.0 | 0.0 | 0.00 | 0.71 | 0.00 | 77 | 1057.6 |
| 20260905054505 | 63 | 270 | 17.0 | 0.0 | 0.00 | 0.71 | 0.00 | 77 | 1057.6 |
| 20260905054400 | 63 | 270 | 0.0 | 0.0 | 0.00 | 0.71 | 0.00 | 77 | 1057.5 |
| 20260905054254 | 63 | 247 | 12.0 | 0.0 | 0.00 | 0.71 | 0.00 | 77 | 1057.6 |
| 20260905054140 | 63 | 22 | 5.0 | 0.0 | 0.00 | 0.71 | 0.00 | 76 | 1057.6 |
| 20260905054010 | 63 | 292 | 5.0 | 0.0 | 0.00 | 0.71 | 0.00 | 76 | 1057.6 |
| 20260905053842 | 64 | 315 | 11.0 | 0.0 | 0.00 | 0.71 | 0.00 | 76 | 1057.6 |
| 20260905053739 | 64 | 292 | 9.0 | 0.0 | 0.00 | 0.71 | 0.00 | 77 | 1057.5 |
| 20260905053633 | 64 | 292 | 7.0 | 0.0 | 0.00 | 0.71 | 0.00 | 77 | 1057.5 |
| 20260905053518 | 64 | 292 | 6.0 | 0.0 | 0.00 | 0.71 | 0.00 | 77 | 1057.5 |
| 20260905053405 | 63 | 315 | 12.0 | 0.0 | 0.00 | 0.71 | 0.00 | 76 | 1057.5 |
| 20260905053247 | 63 | 315 | 4.0 | 0.0 | 0.00 | 0.71 | 0.00 | 76 | 1057.5 |
| 20260905053140 | 63 | 0 | 4.0 | 0.0 | 0.00 | 0.71 | 0.00 | 76 | 1057.4 |
| 20260905053034 | 63 | 292 | 9.0 | 0.0 | 0.00 | 0.71 | 0.00 | 77 | 1057.5 |
| 20260905052921 | 63 | 270 | 4.0 | 0.0 | 0.00 | 0.71 | 0.00 | 77 | 1057.5 |
| 20260905052808 | 63 | 315 | 4.0 | 0.0 | 0.00 | 0.71 | 0.00 | 78 | 1057.4 |
| 20260905052702 | 63 | 270 | 10.0 | 0.0 | 0.00 | 0.71 | 0.00 | 78 | 1057.4 |
| 20260905052556 | 63 | 292 | 9.0 | 0.0 | 0.00 | 0.71 | 0.00 | 78 | 1057.4 |
| 20260905052442 | 63 | 292 | 8.0 | 0.0 | 0.00 | 0.71 | 0.00 | 78 | 1057.4 |
| 20260905052338 | 63 | 292 | 9.0 | 0.0 | 0.00 | 0.71 | 0.00 | 78 | 1057.4 |
| 20260905052223 | 63 | 270 | 0.0 | 0.0 | 0.00 | 0.71 | 0.00 | 79 | 1057.4 |
| 20260905052115 | 63 | 337 | 10.0 | 0.0 | 0.00 | 0.71 | 0.00 | 79 | 1057.4 |
| 20260905052002 | 62 | 292 | 8.0 | 0.0 | 0.00 | 0.71 | 0.00 | 80 | 1057.4 |
| 20260905051845 | 62 | 315 | 5.0 | 0.0 | 0.00 | 0.71 | 0.00 | 79 | 1057.4 |
| 20260905051730 | 62 | 270 | 0.0 | 0.0 | 0.00 | 0.71 | 0.00 | 79 | 1057.4 |
| 20260905051610 | 62 | 292 | 7.0 | 0.0 | 0.00 | 0.71 | 0.00 | 79 | 1057.4 |
| 20260905051447 | 62 | 292 | 2.0 | 0.0 | 0.00 | 0.71 | 0.00 | 79 | 1057.5 |
| 20260905051332 | 62 | 270 | 16.0 | 0.0 | 0.00 | 0.71 | 0.00 | 79 | 1057.4 |
| 20260905051228 | 62 | 270 | 6.0 | 0.0 | 0.00 | 0.71 | 0.00 | 79 | 1057.4 |
| 20260905051120 | 62 | 292 | 8.0 | 0.0 | 0.00 | 0.71 | 0.00 | 80 | 1057.4 |
| 20260905050959 | 62 | 315 | 7.0 | 0.0 | 0.00 | 0.71 | 0.00 | 80 | 1057.4 |
| 20260905050845 | 62 | 292 | 8.0 | 0.0 | 0.00 | 0.71 | 0.00 | 80 | 1057.4 |
| 20260905050733 | 62 | 315 | 11.0 | 0.0 | 0.00 | 0.71 | 0.00 | 80 | 1057.4 |
| 20260905050620 | 62 | 247 | 12.0 | 0.0 | 0.00 | 0.71 | 0.00 | 80 | 1057.4 |
| 20260905050459 | 62 | 270 | 8.0 | 0.0 | 0.00 | 0.71 | 0.00 | 80 | 1057.4 |
| 20260905050353 | 62 | 337 | 11.0 | 0.0 | 0.00 | 0.71 | 0.00 | 79 | 1057.4 |
| 20260905050243 | 62 | 292 | 6.0 | 0.0 | 0.00 | 0.71 | 0.00 | 79 | 1057.4 |
| 20260905050135 | 62 | 292 | 8.0 | 0.0 | 0.00 | 0.71 | 0.00 | 79 | 1057.3 |
| 20260905050014 | 62 | 315 | 0.0 | 0.0 | 0.00 | 0.71 | 0.00 | 78 | 1057.2 |
| 20260905045901 | 63 | 270 | 2.0 | 0.0 | 0.00 | 0.73 | 0.00 | 78 | 1057.3 |
| 20260905045749 | 63 | 247 | 10.0 | 0.0 | 0.00 | 0.73 | 0.00 | 77 | 1057.3 |
| 20260905045641 | 63 | 292 | 13.0 | 0.0 | 0.00 | 0.73 | 0.00 | 77 | 1057.3 |
| 20260905045529 | 63 | 270 | 8.0 | 0.0 | 0.00 | 0.73 | 0.00 | 77 | 1057.2 |
| 20260905045424 | 63 | 292 | 12.0 | 0.0 | 0.00 | 0.73 | 0.00 | 76 | 1057.2 |
| 20260905045311 | 63 | 337 | 10.0 | 0.0 | 0.00 | 0.73 | 0.00 | 76 | 1057.3 |
| 20260905045205 | 63 | 292 | 9.0 | 0.0 | 0.00 | 0.73 | 0.00 | 75 | 1057.3 |
| 20260905045053 | 64 | 0 | 4.0 | 0.0 | 0.00 | 0.73 | 0.00 | 75 | 1057.3 |
| 20260905044948 | 64 | 315 | 13.0 | 0.0 | 0.00 | 0.73 | 0.00 | 75 | 1057.3 |
| 20260905044843 | 64 | 270 | 16.0 | 0.0 | 0.00 | 0.73 | 0.00 | 74 | 1057.2 |
| 20260905044737 | 64 | 292 | 11.0 | 0.0 | 0.00 | 0.73 | 0.00 | 74 | 1057.1 |
| 20260905044625 | 63 | 315 | 14.0 | 0.0 | 0.00 | 0.73 | 0.00 | 74 | 1057.2 |
| 20260905044519 | 63 | 45 | 0.0 | 0.0 | 0.00 | 0.73 | 0.00 | 74 | 1057.1 |
| 20260905044406 | 63 | 270 | 0.0 | 0.0 | 0.00 | 0.73 | 0.00 | 74 | 1057.2 |
| 20260905044301 | 63 | 247 | 5.0 | 0.0 | 0.00 | 0.73 | 0.00 | 74 | 1057.2 |
| 20260905044148 | 63 | 292 | 6.0 | 0.0 | 0.00 | 0.73 | 0.00 | 75 | 1057.2 |
| 20260905044026 | 63 | 247 | 10.0 | 0.0 | 0.00 | 0.73 | 0.00 | 78 | 1057.2 |
| 20260905043914 | 63 | 270 | 5.0 | 0.0 | 0.00 | 0.73 | 0.00 | 78 | 1057.2 |
| 20260905043754 | 63 | 270 | 0.0 | 0.0 | 0.00 | 0.73 | 0.00 | 78 | 1057.2 |
| 20260905043648 | 63 | 292 | 7.0 | 0.0 | 0.00 | 0.73 | 0.00 | 78 | 1057.2 |
| 20260905043531 | 63 | 292 | 5.0 | 0.0 | 0.00 | 0.73 | 0.00 | 78 | 1057.2 |
| 20260905043421 | 63 | 270 | 0.0 | 0.0 | 0.00 | 0.73 | 0.00 | 78 | 1057.2 |
| 20260905043308 | 63 | 247 | 7.0 | 0.0 | 0.00 | 0.73 | 0.00 | 78 | 1057.2 |
| 20260905043139 | 63 | 292 | 5.0 | 0.0 | 0.00 | 0.73 | 0.00 | 78 | 1057.2 |
| 20260905043017 | 63 | 315 | 0.0 | 0.0 | 0.00 | 0.73 | 0.00 | 78 | 1057.2 |
| 20260905042907 | 63 | 315 | 7.0 | 0.0 | 0.00 | 0.73 | 0.00 | 78 | 1057.2 |
| 20260905042759 | 63 | 292 | 7.0 | 0.0 | 0.00 | 0.73 | 0.00 | 77 | 1057.2 |
| 20260905042646 | 63 | 315 | 2.0 | 0.0 | 0.00 | 0.73 | 0.00 | 77 | 1057.2 |
| 20260905042525 | 63 | 292 | 13.0 | 0.0 | 0.00 | 0.73 | 0.00 | 77 | 1057.1 |
| 20260905042403 | 63 | 337 | 7.0 | 0.0 | 0.00 | 0.73 | 0.00 | 77 | 1057.1 |
| 20260905042250 | 63 | 202 | 11.0 | 0.0 | 0.00 | 0.73 | 0.00 | 76 | 1057.1 |
| 20260905042138 | 63 | 337 | 0.0 | 0.0 | 0.00 | 0.73 | 0.00 | 76 | 1057.1 |
| 20260905042026 | 63 | 292 | 5.0 | 0.0 | 0.00 | 0.73 | 0.00 | 76 | 1057.1 |
| 20260905041920 | 63 | 270 | 6.0 | 0.0 | 0.00 | 0.73 | 0.00 | 75 | 1057.1 |
| 20260905041729 | 63 | 292 | 8.0 | 0.0 | 0.00 | 0.73 | 0.00 | 76 | 1057.0 |
| 20260905041606 | 63 | 315 | 8.0 | 0.0 | 0.00 | 0.73 | 0.00 | 76 | 1057.1 |
| 20260905041437 | 63 | 292 | 6.0 | 0.0 | 0.00 | 0.73 | 0.00 | 77 | 1057.1 |
| 20260905041313 | 63 | 315 | 9.0 | 0.0 | 0.00 | 0.73 | 0.00 | 77 | 1057.0 |
| 20260905041144 | 63 | 202 | 4.0 | 0.0 | 0.00 | 0.73 | 0.00 | 78 | 1057.1 |
| 20260905041031 | 63 | 270 | 13.0 | 0.0 | 0.00 | 0.73 | 0.00 | 78 | 1057.0 |
| 20260905040926 | 63 | 315 | 0.0 | 0.0 | 0.00 | 0.73 | 0.00 | 77 | 1057.1 |
| 20260905040815 | 63 | 292 | 9.0 | 0.0 | 0.00 | 0.73 | 0.00 | 77 | 1057.0 |
| 20260905040710 | 63 | 337 | 13.0 | 0.0 | 0.00 | 0.73 | 0.00 | 78 | 1057.1 |
| 20260905040547 | 63 | 315 | 0.0 | 0.0 | 0.00 | 0.73 | 0.00 | 78 | 1057.1 |
| 20260905040425 | 63 | 247 | 10.0 | 0.0 | 0.00 | 0.73 | 0.00 | 78 | 1057.0 |
| 20260905040304 | 64 | 247 | 14.0 | 0.0 | 0.00 | 0.73 | 0.00 | 78 | 1057.1 |
| 20260905040151 | 64 | 315 | 0.0 | 0.0 | 0.00 | 0.73 | 0.00 | 78 | 1057.1 |
| 20260905040046 | 64 | 292 | 5.0 | 0.0 | 0.00 | 0.73 | 0.00 | 78 | 1057.1 |
| 20260905035933 | 64 | 270 | 4.0 | 0.0 | 0.00 | 0.73 | 0.00 | 77 | 1057.0 |
| 20260905035812 | 64 | 292 | 8.0 | 0.0 | 0.00 | 0.73 | 0.00 | 77 | 1057.0 |
| 20260905035707 | 64 | 292 | 7.0 | 0.0 | 0.00 | 0.73 | 0.00 | 76 | 1057.1 |
| 20260905035554 | 64 | 292 | 7.0 | 0.0 | 0.00 | 0.73 | 0.00 | 76 | 1057.1 |
| 20260905035433 | 64 | 315 | 8.0 | 0.0 | 0.00 | 0.73 | 0.00 | 76 | 1057.0 |
| 20260905035320 | 64 | 292 | 12.0 | 0.0 | 0.00 | 0.73 | 0.00 | 76 | 1057.1 |
| 20260905035215 | 64 | 337 | 0.0 | 0.0 | 0.00 | 0.73 | 0.00 | 75 | 1057.1 |
| 20260905035109 | 64 | 315 | 0.0 | 0.0 | 0.00 | 0.73 | 0.00 | 75 | 1057.0 |
| 20260905034957 | 64 | 292 | 4.0 | 0.0 | 0.00 | 0.73 | 0.00 | 75 | 1057.1 |
| 20260905034852 | 64 | 270 | 5.0 | 0.0 | 0.00 | 0.73 | 0.00 | 75 | 1057.1 |
| 20260905034746 | 64 | 292 | 11.0 | 0.0 | 0.00 | 0.73 | 0.00 | 75 | 1057.0 |
| 20260905034633 | 64 | 247 | 7.0 | 0.0 | 0.00 | 0.73 | 0.00 | 75 | 1057.0 |
| 20260905034519 | 64 | 315 | 3.0 | 0.0 | 0.00 | 0.73 | 0.00 | 75 | 1057.0 |
| 20260905034358 | 64 | 315 | 7.0 | 0.0 | 0.00 | 0.73 | 0.00 | 75 | 1057.1 |
| 20260905034238 | 64 | 315 | 3.0 | 0.0 | 0.00 | 0.73 | 0.00 | 75 | 1057.0 |
| 20260905034135 | 64 | 315 | 12.0 | 0.0 | 0.00 | 0.73 | 0.00 | 75 | 1057.1 |
| 20260905034027 | 64 | 292 | 7.0 | 0.0 | 0.00 | 0.73 | 0.00 | 75 | 1057.1 |
| 20260905033916 | 64 | 292 | 11.0 | 0.0 | 0.00 | 0.73 | 0.00 | 76 | 1057.0 |
| 20260905033801 | 64 | 247 | 12.0 | 0.0 | 0.00 | 0.73 | 0.00 | 76 | 1057.1 |
| 20260905033647 | 64 | 292 | 5.0 | 0.0 | 0.00 | 0.73 | 0.00 | 76 | 1057.1 |
| 20260905033519 | 64 | 292 | 5.0 | 0.0 | 0.00 | 0.73 | 0.00 | 75 | 1057.1 |
| 20260905033414 | 64 | 292 | 2.0 | 0.0 | 0.00 | 0.73 | 0.00 | 75 | 1057.1 |
| 20260905033308 | 64 | 270 | 6.0 | 0.0 | 0.00 | 0.73 | 0.00 | 74 | 1057.1 |
| 20260905033155 | 64 | 337 | 6.0 | 0.0 | 0.00 | 0.73 | 0.00 | 74 | 1057.1 |
| 20260905033044 | 64 | 315 | 8.0 | 0.0 | 0.00 | 0.73 | 0.00 | 75 | 1057.1 |
| 20260905032938 | 64 | 337 | 5.0 | 0.0 | 0.00 | 0.73 | 0.00 | 75 | 1057.1 |
| 20260905032832 | 64 | 270 | 6.0 | 0.0 | 0.00 | 0.73 | 0.00 | 75 | 1057.1 |
| 20260905032711 | 64 | 337 | 7.0 | 0.0 | 0.00 | 0.73 | 0.00 | 76 | 1057.0 |
| 20260905032550 | 64 | 0 | 5.0 | 0.0 | 0.00 | 0.73 | 0.00 | 76 | 1057.0 |
| 20260905032445 | 64 | 270 | 3.0 | 0.0 | 0.00 | 0.73 | 0.00 | 76 | 1057.1 |
| 20260905032334 | 64 | 315 | 13.0 | 0.0 | 0.00 | 0.73 | 0.00 | 76 | 1057.1 |
| 20260905032218 | 64 | 270 | 5.0 | 0.0 | 0.00 | 0.73 | 0.00 | 75 | 1057.0 |
| 20260905032058 | 64 | 22 | 9.0 | 0.0 | 0.00 | 0.73 | 0.00 | 75 | 1057.1 |
| 20260905031945 | 63 | 315 | 8.0 | 0.0 | 0.00 | 0.73 | 0.00 | 75 | 1057.0 |
| 20260905031831 | 63 | 292 | 13.0 | 0.0 | 0.00 | 0.73 | 0.00 | 75 | 1057.0 |
| 20260905031710 | 63 | 0 | 0.0 | 0.0 | 0.00 | 0.73 | 0.00 | 75 | 1057.1 |
| 20260905031606 | 63 | 337 | 0.0 | 0.0 | 0.00 | 0.73 | 0.00 | 75 | 1057.0 |
| 20260905031459 | 64 | 0 | 0.0 | 0.0 | 0.00 | 0.73 | 0.00 | 75 | 1057.0 |
| 20260905031347 | 64 | 292 | 2.0 | 0.0 | 0.00 | 0.73 | 0.00 | 75 | 1057.1 |
| 20260905031234 | 63 | 315 | 6.0 | 0.0 | 0.00 | 0.73 | 0.00 | 75 | 1057.0 |
| 20260905031129 | 64 | 315 | 9.0 | 0.0 | 0.00 | 0.73 | 0.00 | 75 | 1057.1 |
| 20260905031007 | 63 | 292 | 4.0 | 0.0 | 0.00 | 0.73 | 0.00 | 75 | 1057.1 |
| 20260905030854 | 63 | 315 | 2.0 | 0.0 | 0.00 | 0.73 | 0.00 | 76 | 1057.0 |
| 20260905030749 | 64 | 315 | 9.0 | 0.0 | 0.00 | 0.73 | 0.00 | 76 | 1057.0 |
| 20260905030628 | 63 | 270 | 13.0 | 0.0 | 0.00 | 0.73 | 0.00 | 76 | 1057.1 |
| 20260905030459 | 63 | 337 | 10.0 | 0.0 | 0.00 | 0.73 | 0.00 | 76 | 1057.0 |
| 20260905030352 | 63 | 315 | 9.0 | 0.0 | 0.00 | 0.73 | 0.00 | 76 | 1057.0 |
| 20260905030240 | 63 | 292 | 5.0 | 0.0 | 0.00 | 0.73 | 0.00 | 76 | 1057.0 |
| 20260905030120 | 63 | 292 | 9.0 | 0.0 | 0.00 | 0.73 | 0.00 | 76 | 1057.0 |
| 20260905030015 | 64 | 292 | 10.0 | 0.0 | 0.00 | 0.73 | 0.00 | 76 | 1057.0 |
| 20260905025901 | 64 | 292 | 5.0 | 0.0 | 0.00 | 0.73 | 0.00 | 75 | 1057.0 |
| 20260905025748 | 64 | 337 | 4.0 | 0.0 | 0.00 | 0.73 | 0.00 | 75 | 1057.0 |
| 20260905025637 | 64 | 270 | 4.0 | 0.0 | 0.00 | 0.73 | 0.00 | 75 | 1057.0 |
| 20260905025532 | 64 | 292 | 10.0 | 0.0 | 0.00 | 0.73 | 0.00 | 75 | 1057.0 |
| 20260905025426 | 64 | 292 | 6.0 | 0.0 | 0.00 | 0.73 | 0.00 | 76 | 1057.0 |
| 20260905025322 | 64 | 270 | 13.0 | 0.0 | 0.00 | 0.73 | 0.00 | 76 | 1056.9 |
| 20260905025215 | 64 | 292 | 4.0 | 0.0 | 0.00 | 0.73 | 0.00 | 75 | 1056.9 |
| 20260905025112 | 63 | 270 | 4.0 | 0.0 | 0.00 | 0.73 | 0.00 | 76 | 1056.9 |
| 20260905025004 | 63 | 225 | 16.0 | 0.0 | 0.00 | 0.73 | 0.00 | 76 | 1056.9 |
| 20260905024843 | 64 | 292 | 9.0 | 0.0 | 0.00 | 0.73 | 0.00 | 77 | 1056.9 |
| 20260905024730 | 64 | 270 | 4.0 | 0.0 | 0.00 | 0.73 | 0.00 | 77 | 1056.9 |
| 20260905024617 | 63 | 337 | 7.0 | 0.0 | 0.00 | 0.73 | 0.00 | 77 | 1057.0 |
| 20260905024456 | 63 | 270 | 2.0 | 0.0 | 0.00 | 0.73 | 0.00 | 76 | 1056.9 |
| 20260905024334 | 63 | 270 | 8.0 | 0.0 | 0.00 | 0.73 | 0.00 | 76 | 1056.9 |
| 20260905024222 | 63 | 247 | 11.0 | 0.0 | 0.00 | 0.73 | 0.00 | 76 | 1056.9 |
| 20260905024117 | 63 | 292 | 7.0 | 0.0 | 0.00 | 0.73 | 0.00 | 76 | 1057.0 |
| 20260905024003 | 63 | 337 | 6.0 | 0.0 | 0.00 | 0.73 | 0.00 | 76 | 1056.9 |
| 20260905023843 | 63 | 247 | 0.0 | 0.0 | 0.00 | 0.73 | 0.00 | 76 | 1056.9 |
| 20260905023738 | 63 | 292 | 6.0 | 0.0 | 0.00 | 0.73 | 0.00 | 76 | 1056.9 |
| 20260905023624 | 63 | 292 | 11.0 | 0.0 | 0.00 | 0.73 | 0.00 | 76 | 1057.0 |
| 20260905023510 | 63 | 270 | 11.0 | 0.0 | 0.00 | 0.73 | 0.00 | 76 | 1057.0 |
| 20260905023350 | 63 | 270 | 1.0 | 0.0 | 0.00 | 0.73 | 0.00 | 76 | 1056.9 |
| 20260905023237 | 63 | 247 | 5.0 | 0.0 | 0.00 | 0.73 | 0.00 | 76 | 1056.9 |
| 20260905023117 | 63 | 292 | 0.0 | 0.0 | 0.00 | 0.73 | 0.00 | 76 | 1056.9 |
| 20260905023004 | 63 | 0 | 4.0 | 0.0 | 0.00 | 0.73 | 0.00 | 76 | 1057.0 |
| 20260905022852 | 63 | 292 | 5.0 | 0.0 | 0.00 | 0.73 | 0.00 | 76 | 1057.0 |
| 20260905022744 | 63 | 315 | 2.0 | 0.0 | 0.00 | 0.73 | 0.00 | 76 | 1057.0 |
| 20260905022631 | 63 | 292 | 14.0 | 0.0 | 0.00 | 0.73 | 0.00 | 76 | 1057.0 |
| 20260905022520 | 64 | 292 | 10.0 | 0.0 | 0.00 | 0.73 | 0.00 | 76 | 1057.1 |
| 20260905022405 | 64 | 315 | 6.0 | 0.0 | 0.00 | 0.73 | 0.00 | 76 | 1057.0 |
| 20260905022252 | 64 | 315 | 3.0 | 0.0 | 0.00 | 0.73 | 0.00 | 75 | 1057.0 |
| 20260905022132 | 64 | 337 | 0.0 | 0.0 | 0.00 | 0.73 | 0.00 | 75 | 1057.0 |
| 20260905022011 | 64 | 247 | 11.0 | 0.0 | 0.00 | 0.73 | 0.00 | 75 | 1056.9 |
| 20260905021858 | 64 | 292 | 6.0 | 0.0 | 0.00 | 0.73 | 0.00 | 74 | 1057.0 |
| 20260905021736 | 64 | 247 | 6.0 | 0.0 | 0.00 | 0.73 | 0.00 | 75 | 1056.9 |
| 20260905021613 | 64 | 0 | 13.0 | 0.0 | 0.00 | 0.73 | 0.00 | 74 | 1056.9 |
| 20260905021452 | 64 | 270 | 12.0 | 0.0 | 0.00 | 0.73 | 0.00 | 74 | 1056.9 |
| 20260905021339 | 64 | 270 | 0.0 | 0.0 | 0.00 | 0.73 | 0.00 | 73 | 1057.0 |
| 20260905021234 | 64 | 315 | 12.0 | 0.0 | 0.00 | 0.73 | 0.00 | 73 | 1056.9 |
| 20260905021122 | 64 | 315 | 12.0 | 0.0 | 0.00 | 0.73 | 0.00 | 73 | 1056.9 |
| 20260905021008 | 64 | 270 | 12.0 | 0.0 | 0.00 | 0.73 | 0.00 | 73 | 1057.0 |
| 20260905020855 | 64 | 315 | 11.0 | 0.0 | 0.00 | 0.73 | 0.00 | 73 | 1057.0 |
| 20260905020751 | 64 | 270 | 16.0 | 0.0 | 0.00 | 0.73 | 0.00 | 73 | 1056.9 |
| 20260905020636 | 64 | 292 | 15.0 | 0.0 | 0.00 | 0.73 | 0.00 | 73 | 1056.9 |
| 20260905020524 | 64 | 270 | 14.0 | 0.0 | 0.00 | 0.73 | 0.00 | 73 | 1056.9 |
| 20260905020418 | 64 | 270 | 1.0 | 0.0 | 0.00 | 0.73 | 0.00 | 73 | 1056.9 |
| 20260905020306 | 64 | 337 | 2.0 | 0.0 | 0.00 | 0.73 | 0.00 | 74 | 1057.0 |
| 20260905015958 | 64 | 315 | 9.0 | 0.0 | 0.00 | 0.73 | 0.00 | 75 | 1057.0 |
| 20260905015845 | 64 | 270 | 15.0 | 0.0 | 0.00 | 0.73 | 0.00 | 74 | 1057.0 |
| 20260905015732 | 64 | 315 | 4.0 | 0.0 | 0.00 | 0.73 | 0.00 | 74 | 1056.9 |
| 20260905015619 | 64 | 315 | 9.0 | 0.0 | 0.00 | 0.73 | 0.00 | 73 | 1056.9 |
| 20260905015506 | 64 | 247 | 14.0 | 0.0 | 0.00 | 0.73 | 0.00 | 74 | 1056.9 |
| 20260905015401 | 64 | 270 | 10.0 | 0.0 | 0.00 | 0.73 | 0.00 | 74 | 1056.8 |
| 20260905015248 | 64 | 292 | 7.0 | 0.0 | 0.00 | 0.73 | 0.00 | 73 | 1056.8 |
| 20260905015142 | 64 | 337 | 11.0 | 0.0 | 0.00 | 0.73 | 0.00 | 73 | 1056.9 |
| 20260905015029 | 64 | 270 | 6.0 | 0.0 | 0.00 | 0.73 | 0.00 | 73 | 1056.7 |
| 20260905014919 | 64 | 315 | 7.0 | 0.0 | 0.00 | 0.73 | 0.00 | 73 | 1056.7 |
| 20260905014811 | 64 | 292 | 6.0 | 0.0 | 0.00 | 0.73 | 0.00 | 73 | 1056.7 |
| 20260905014657 | 64 | 315 | 11.0 | 0.0 | 0.00 | 0.73 | 0.00 | 73 | 1056.7 |
| 20260905014537 | 64 | 22 | 2.0 | 0.0 | 0.00 | 0.73 | 0.00 | 73 | 1056.7 |
| 20260905014432 | 64 | 315 | 0.0 | 0.0 | 0.00 | 0.73 | 0.00 | 72 | 1056.7 |
| 20260905014319 | 64 | 292 | 11.0 | 0.0 | 0.00 | 0.73 | 0.00 | 71 | 1056.7 |
| 20260905014214 | 64 | 337 | 5.0 | 0.0 | 0.00 | 0.73 | 0.00 | 71 | 1056.6 |
| 20260905014101 | 64 | 315 | 12.0 | 0.0 | 0.00 | 0.73 | 0.00 | 71 | 1056.7 |
| 20260905013956 | 64 | 315 | 14.0 | 0.0 | 0.00 | 0.73 | 0.00 | 72 | 1056.7 |
| 20260905013851 | 64 | 315 | 14.0 | 0.0 | 0.00 | 0.73 | 0.00 | 72 | 1056.7 |
| 20260905013738 | 64 | 292 | 7.0 | 0.0 | 0.00 | 0.73 | 0.00 | 72 | 1056.7 |
| 20260905013625 | 64 | 315 | 6.0 | 0.0 | 0.00 | 0.73 | 0.00 | 72 | 1056.6 |
| 20260905013513 | 64 | 315 | 2.0 | 0.0 | 0.00 | 0.73 | 0.00 | 72 | 1056.6 |
| 20260905013406 | 64 | 270 | 13.0 | 0.0 | 0.00 | 0.73 | 0.00 | 73 | 1056.7 |
| 20260905013245 | 64 | 292 | 5.0 | 0.0 | 0.00 | 0.73 | 0.00 | 74 | 1056.5 |
| 20260905013132 | 64 | 292 | 9.0 | 0.0 | 0.00 | 0.73 | 0.00 | 73 | 1056.6 |
| 20260905013027 | 64 | 315 | 0.0 | 0.0 | 0.00 | 0.73 | 0.00 | 73 | 1056.7 |
| 20260905012920 | 64 | 337 | 6.0 | 0.0 | 0.00 | 0.73 | 0.00 | 73 | 1056.6 |
| 20260905012808 | 64 | 315 | 4.0 | 0.0 | 0.00 | 0.73 | 0.00 | 74 | 1056.7 |
| 20260905012655 | 64 | 270 | 0.0 | 0.0 | 0.00 | 0.73 | 0.00 | 74 | 1056.6 |
| 20260905012550 | 64 | 292 | 6.0 | 0.0 | 0.00 | 0.73 | 0.00 | 74 | 1056.6 |
| 20260905012438 | 64 | 292 | 4.0 | 0.0 | 0.00 | 0.73 | 0.00 | 74 | 1056.6 |
| 20260905012331 | 64 | 270 | 11.0 | 0.0 | 0.00 | 0.73 | 0.00 | 74 | 1056.6 |
| 20260905012211 | 64 | 270 | 3.0 | 0.0 | 0.00 | 0.73 | 0.00 | 74 | 1056.7 |
| 20260905012106 | 64 | 270 | 15.0 | 0.0 | 0.00 | 0.73 | 0.00 | 73 | 1056.6 |
| 20260905011953 | 64 | 0 | 0.0 | 0.0 | 0.00 | 0.73 | 0.00 | 73 | 1056.5 |
| 20260905011847 | 64 | 0 | 7.0 | 0.0 | 0.00 | 0.73 | 0.00 | 74 | 1056.6 |
| 20260905011735 | 64 | 315 | 6.0 | 0.0 | 0.00 | 0.73 | 0.00 | 74 | 1056.6 |
| 20260905011624 | 64 | 315 | 4.0 | 0.0 | 0.00 | 0.73 | 0.00 | 74 | 1056.4 |
| 20260905011509 | 64 | 292 | 6.0 | 0.0 | 0.00 | 0.73 | 0.00 | 73 | 1056.5 |
| 20260905011355 | 64 | 337 | 10.0 | 0.0 | 0.00 | 0.73 | 0.00 | 73 | 1056.5 |
| 20260905011242 | 64 | 270 | 8.0 | 0.0 | 0.00 | 0.73 | 0.00 | 73 | 1056.5 |
| 20260905011121 | 64 | 315 | 2.0 | 0.0 | 0.00 | 0.73 | 0.00 | 74 | 1056.5 |
| 20260905011007 | 64 | 292 | 13.0 | 0.0 | 0.00 | 0.73 | 0.00 | 74 | 1056.6 |
| 20260905010840 | 64 | 292 | 6.0 | 0.0 | 0.00 | 0.73 | 0.00 | 74 | 1056.6 |
| 20260905010725 | 64 | 315 | 5.0 | 0.0 | 0.00 | 0.73 | 0.00 | 73 | 1056.6 |
| 20260905010614 | 64 | 315 | 11.0 | 0.0 | 0.00 | 0.73 | 0.00 | 73 | 1056.5 |
| 20260905010507 | 64 | 270 | 10.0 | 0.0 | 0.00 | 0.73 | 0.00 | 73 | 1056.7 |
| 20260905010349 | 64 | 270 | 11.0 | 0.0 | 0.00 | 0.73 | 0.00 | 73 | 1056.5 |
| 20260905010243 | 64 | 315 | 12.0 | 0.0 | 0.00 | 0.73 | 0.00 | 73 | 1056.4 |
| 20260905010136 | 64 | 292 | 10.0 | 0.0 | 0.00 | 0.73 | 0.00 | 74 | 1056.5 |
| 20260905005942 | 64 | 292 | 11.0 | 0.0 | 0.00 | 0.73 | 0.00 | 74 | 1056.6 |
| 20260905005821 | 64 | 292 | 9.0 | 0.0 | 0.00 | 0.73 | 0.00 | 74 | 1056.4 |
| 20260905005707 | 64 | 292 | 8.0 | 0.0 | 0.00 | 0.73 | 0.00 | 73 | 1056.5 |
| 20260905005539 | 64 | 315 | 10.0 | 0.0 | 0.00 | 0.73 | 0.00 | 73 | 1056.5 |
| 20260905005417 | 64 | 270 | 13.0 | 0.0 | 0.00 | 0.73 | 0.00 | 73 | 1056.6 |
| 20260905005259 | 64 | 292 | 9.0 | 0.0 | 0.00 | 0.73 | 0.00 | 73 | 1056.5 |
| 20260905005151 | 64 | 315 | 6.0 | 0.0 | 0.00 | 0.73 | 0.00 | 74 | 1056.4 |
| 20260905005037 | 64 | 315 | 14.0 | 0.0 | 0.00 | 0.73 | 0.00 | 75 | 1056.5 |
| 20260905004918 | 64 | 247 | 7.0 | 0.0 | 0.00 | 0.73 | 0.00 | 75 | 1056.4 |
| 20260905004814 | 64 | 315 | 6.0 | 0.0 | 0.00 | 0.73 | 0.00 | 75 | 1056.4 |
| 20260905004658 | 63 | 247 | 5.0 | 0.0 | 0.00 | 0.73 | 0.00 | 75 | 1056.3 |
| 20260905004548 | 63 | 337 | 7.0 | 0.0 | 0.00 | 0.73 | 0.00 | 74 | 1056.4 |
| 20260905004441 | 63 | 0 | 3.0 | 0.0 | 0.00 | 0.73 | 0.00 | 74 | 1056.4 |
| 20260905004335 | 63 | 315 | 12.0 | 0.0 | 0.00 | 0.73 | 0.00 | 74 | 1056.5 |
| 20260905004206 | 63 | 292 | 12.0 | 0.0 | 0.00 | 0.73 | 0.00 | 75 | 1056.4 |
| 20260905004045 | 63 | 315 | 8.0 | 0.0 | 0.00 | 0.73 | 0.00 | 75 | 1056.3 |
| 20260905003926 | 63 | 247 | 4.0 | 0.0 | 0.00 | 0.73 | 0.00 | 75 | 1056.3 |
| 20260905003821 | 63 | 315 | 3.0 | 0.0 | 0.00 | 0.73 | 0.00 | 75 | 1056.6 |
| 20260905003713 | 64 | 337 | 2.0 | 0.0 | 0.00 | 0.73 | 0.00 | 76 | 1056.4 |
| 20260905003600 | 64 | 292 | 0.0 | 0.0 | 0.00 | 0.73 | 0.00 | 75 | 1056.4 |
| 20260905003439 | 64 | 270 | 2.0 | 0.0 | 0.00 | 0.73 | 0.00 | 75 | 1056.4 |
| 20260905003302 | 64 | 292 | 11.0 | 0.0 | 0.00 | 0.73 | 0.00 | 75 | 1056.5 |
| 20260905003141 | 64 | 315 | 3.0 | 0.0 | 0.00 | 0.73 | 0.00 | 75 | 1056.4 |
| 20260905003035 | 64 | 270 | 4.0 | 0.0 | 0.00 | 0.73 | 0.00 | 75 | 1056.4 |
| 20260905002906 | 64 | 292 | 5.0 | 0.0 | 0.00 | 0.73 | 0.00 | 75 | 1056.3 |
| 20260905002753 | 64 | 247 | 8.0 | 0.0 | 0.00 | 0.73 | 0.00 | 75 | 1056.4 |
| 20260905002641 | 64 | 337 | 0.0 | 0.0 | 0.00 | 0.73 | 0.00 | 75 | 1056.5 |
| 20260905002526 | 64 | 315 | 7.0 | 0.0 | 0.00 | 0.73 | 0.00 | 75 | 1056.4 |
| 20260905002359 | 64 | 315 | 5.0 | 0.0 | 0.00 | 0.73 | 0.00 | 75 | 1056.4 |
| 20260905002245 | 64 | 292 | 4.0 | 0.0 | 0.00 | 0.73 | 0.00 | 75 | 1056.5 |
| 20260905002140 | 64 | 337 | 6.0 | 0.0 | 0.00 | 0.73 | 0.00 | 75 | 1056.5 |
| 20260905002026 | 64 | 315 | 14.0 | 0.0 | 0.00 | 0.73 | 0.00 | 75 | 1056.4 |
| 20260905001913 | 64 | 292 | 16.0 | 0.0 | 0.00 | 0.73 | 0.00 | 75 | 1056.5 |
| 20260905001802 | 64 | 270 | 8.0 | 0.0 | 0.00 | 0.73 | 0.00 | 75 | 1056.5 |
| 20260905001654 | 64 | 292 | 5.0 | 0.0 | 0.00 | 0.73 | 0.00 | 74 | 1056.4 |
| 20260905001534 | 64 | 270 | 12.0 | 0.0 | 0.00 | 0.73 | 0.00 | 74 | 1056.4 |
| 20260905001420 | 64 | 337 | 6.0 | 0.0 | 0.00 | 0.73 | 0.00 | 74 | 1056.5 |
| 20260905001259 | 64 | 0 | 6.0 | 0.0 | 0.00 | 0.73 | 0.00 | 74 | 1056.5 |
| 20260905001129 | 64 | 315 | 3.0 | 0.0 | 0.00 | 0.73 | 0.00 | 75 | 1056.5 |
| 20260905001010 | 64 | 292 | 9.0 | 0.0 | 0.00 | 0.73 | 0.00 | 74 | 1056.5 |
| 20260905000906 | 64 | 0 | 4.0 | 0.0 | 0.00 | 0.73 | 0.00 | 74 | 1056.5 |
| 20260905000758 | 64 | 315 | 6.0 | 0.0 | 0.00 | 0.73 | 0.00 | 75 | 1056.4 |
| 20260905000645 | 64 | 315 | 5.0 | 0.0 | 0.00 | 0.73 | 0.00 | 74 | 1056.5 |
| 20260905000534 | 63 | 292 | 9.0 | 0.0 | 0.00 | 0.73 | 0.00 | 75 | 1056.4 |
| 20260905000427 | 63 | 315 | 11.0 | 0.0 | 0.00 | 0.73 | 0.00 | 75 | 1056.4 |
| 20260905000306 | 63 | 270 | 5.0 | 0.0 | 0.00 | 0.73 | 0.00 | 75 | 1056.4 |
| 20260905000136 | 63 | 292 | 10.0 | 0.0 | 0.00 | 0.73 | 0.00 | 75 | 1056.4 |
| 20260905000015 | 63 | 315 | 9.0 | 0.0 | 0.00 | 0.73 | 0.00 | 75 | 1056.4 |
| 20260904235838 | 63 | 315 | 0.0 | 0.0 | 0.00 | 0.73 | 0.00 | 75 | 1056.4 |
| 20260904235725 | 63 | 315 | 6.0 | 0.0 | 0.00 | 0.73 | 0.00 | 75 | 1056.3 |
| 20260904235606 | 63 | 247 | 15.0 | 0.0 | 0.00 | 0.73 | 0.00 | 75 | 1056.4 |
| 20260904235458 | 63 | 315 | 8.0 | 0.0 | 0.00 | 0.73 | 0.00 | 75 | 1056.4 |
| 20260904235346 | 63 | 247 | 10.0 | 0.0 | 0.00 | 0.73 | 0.00 | 75 | 1056.5 |
| 20260904235240 | 63 | 247 | 5.0 | 0.0 | 0.00 | 0.73 | 0.00 | 75 | 1056.4 |
| 20260904235113 | 63 | 292 | 0.0 | 0.0 | 0.00 | 0.73 | 0.00 | 75 | 1056.5 |
| 20260904234958 | 63 | 225 | 0.0 | 0.0 | 0.00 | 0.73 | 0.00 | 75 | 1056.3 |
| 20260904234837 | 63 | 292 | 11.0 | 0.0 | 0.00 | 0.73 | 0.00 | 75 | 1056.4 |
| 20260904234723 | 63 | 270 | 3.0 | 0.0 | 0.00 | 0.73 | 0.00 | 74 | 1056.5 |
| 20260904234610 | 63 | 292 | 2.0 | 0.0 | 0.00 | 0.73 | 0.00 | 74 | 1056.4 |
| 20260904234450 | 63 | 337 | 12.0 | 0.0 | 0.00 | 0.73 | 0.00 | 73 | 1056.5 |
| 20260904234346 | 63 | 0 | 7.0 | 0.0 | 0.00 | 0.73 | 0.00 | 73 | 1056.4 |
| 20260904234231 | 63 | 337 | 2.0 | 0.0 | 0.00 | 0.73 | 0.00 | 72 | 1056.4 |
| 20260904234118 | 63 | 270 | 11.0 | 0.0 | 0.00 | 0.73 | 0.00 | 72 | 1056.4 |
| 20260904234005 | 63 | 270 | 6.0 | 0.0 | 0.00 | 0.73 | 0.00 | 72 | 1056.4 |
| 20260904233853 | 64 | 337 | 6.0 | 0.0 | 0.00 | 0.73 | 0.00 | 72 | 1056.4 |
| 20260904233739 | 64 | 315 | 0.0 | 0.0 | 0.00 | 0.73 | 0.00 | 72 | 1056.4 |
| 20260904233617 | 64 | 270 | 9.0 | 0.0 | 0.00 | 0.73 | 0.00 | 73 | 1056.4 |
| 20260904233504 | 64 | 315 | 5.0 | 0.0 | 0.00 | 0.73 | 0.00 | 73 | 1056.4 |
| 20260904233344 | 64 | 337 | 3.0 | 0.0 | 0.00 | 0.73 | 0.00 | 72 | 1056.3 |
| 20260904233222 | 64 | 292 | 7.0 | 0.0 | 0.00 | 0.73 | 0.00 | 72 | 1056.2 |
| 20260904233118 | 64 | 315 | 10.0 | 0.0 | 0.00 | 0.73 | 0.00 | 72 | 1056.3 |
| 20260904233012 | 64 | 337 | 5.0 | 0.0 | 0.00 | 0.73 | 0.00 | 73 | 1056.3 |
| 20260904232909 | 64 | 315 | 7.0 | 0.0 | 0.00 | 0.73 | 0.00 | 73 | 1056.3 |
| 20260904232802 | 64 | 292 | 3.0 | 0.0 | 0.00 | 0.73 | 0.00 | 73 | 1056.3 |
| 20260904232649 | 63 | 292 | 19.0 | 0.0 | 0.00 | 0.73 | 0.00 | 74 | 1056.4 |
| 20260904232536 | 63 | 337 | 12.0 | 0.0 | 0.00 | 0.73 | 0.00 | 75 | 1056.2 |
| 20260904232430 | 64 | 315 | 7.0 | 0.0 | 0.00 | 0.73 | 0.00 | 75 | 1056.2 |
| 20260904232320 | 64 | 315 | 9.0 | 0.0 | 0.00 | 0.73 | 0.00 | 75 | 1056.3 |
| 20260904232211 | 64 | 292 | 6.0 | 0.0 | 0.00 | 0.73 | 0.00 | 75 | 1056.2 |
| 20260904232052 | 64 | 337 | 7.0 | 0.0 | 0.00 | 0.73 | 0.00 | 75 | 1056.3 |
| 20260904231938 | 64 | 315 | 6.0 | 0.0 | 0.00 | 0.73 | 0.00 | 75 | 1056.4 |
| 20260904231833 | 64 | 315 | 5.0 | 0.0 | 0.00 | 0.73 | 0.00 | 75 | 1056.3 |
| 20260904231721 | 64 | 270 | 0.0 | 0.0 | 0.00 | 0.73 | 0.00 | 75 | 1056.3 |
| 20260904231614 | 64 | 315 | 0.0 | 0.0 | 0.00 | 0.73 | 0.00 | 75 | 1056.4 |
| 20260904231455 | 64 | 315 | 15.0 | 0.0 | 0.00 | 0.73 | 0.00 | 75 | 1056.3 |
| 20260904231347 | 64 | 292 | 13.0 | 0.0 | 0.00 | 0.73 | 0.00 | 75 | 1056.3 |
| 20260904231227 | 64 | 270 | 6.0 | 0.0 | 0.00 | 0.73 | 0.00 | 75 | 1056.2 |
| 20260904231058 | 64 | 292 | 8.0 | 0.0 | 0.00 | 0.73 | 0.00 | 75 | 1056.3 |
| 20260904230954 | 64 | 315 | 15.0 | 0.0 | 0.00 | 0.73 | 0.00 | 74 | 1056.2 |
| 20260904230848 | 64 | 292 | 8.0 | 0.0 | 0.00 | 0.73 | 0.00 | 74 | 1056.2 |
| 20260904230743 | 64 | 292 | 7.0 | 0.0 | 0.00 | 0.73 | 0.00 | 74 | 1056.2 |
| 20260904230621 | 64 | 337 | 0.0 | 0.0 | 0.00 | 0.73 | 0.00 | 74 | 1056.2 |
| 20260904230501 | 64 | 337 | 9.0 | 0.0 | 0.00 | 0.73 | 0.00 | 74 | 1056.2 |
| 20260904230355 | 64 | 292 | 4.0 | 0.0 | 0.00 | 0.73 | 0.00 | 74 | 1056.2 |
| 20260904230234 | 64 | 202 | 7.0 | 0.0 | 0.00 | 0.73 | 0.00 | 74 | 1056.2 |
| 20260904230057 | 64 | 292 | 21.0 | 0.0 | 0.00 | 0.73 | 0.00 | 74 | 1056.1 |
| 20260904225945 | 64 | 22 | 0.0 | 0.0 | 0.00 | 0.73 | 0.00 | 74 | 1056.2 |
| 20260904225838 | 64 | 270 | 0.0 | 0.0 | 0.00 | 0.73 | 0.00 | 74 | 1056.2 |
| 20260904225726 | 64 | 315 | 1.0 | 0.0 | 0.00 | 0.73 | 0.00 | 74 | 1056.3 |
| 20260904225621 | 64 | 337 | 5.0 | 0.0 | 0.00 | 0.73 | 0.00 | 74 | 1056.2 |
| 20260904225507 | 64 | 270 | 14.0 | 0.0 | 0.00 | 0.73 | 0.00 | 74 | 1056.1 |
| 20260904225338 | 64 | 315 | 10.0 | 0.0 | 0.00 | 0.73 | 0.00 | 73 | 1056.2 |
| 20260904225217 | 64 | 292 | 8.0 | 0.0 | 0.00 | 0.73 | 0.00 | 73 | 1056.3 |
| 20260904225106 | 64 | 247 | 4.0 | 0.0 | 0.00 | 0.73 | 0.00 | 73 | 1056.2 |
| 20260904224958 | 64 | 337 | 8.0 | 0.0 | 0.00 | 0.73 | 0.00 | 73 | 1056.2 |
| 20260904224845 | 64 | 292 | 16.0 | 0.0 | 0.00 | 0.73 | 0.00 | 73 | 1056.2 |
| 20260904224723 | 64 | 292 | 10.0 | 0.0 | 0.00 | 0.73 | 0.00 | 73 | 1056.1 |
| 20260904224603 | 64 | 45 | 4.0 | 0.0 | 0.00 | 0.73 | 0.00 | 73 | 1056.2 |
| 20260904224457 | 64 | 315 | 4.0 | 0.0 | 0.00 | 0.73 | 0.00 | 73 | 1056.1 |
| 20260904224347 | 64 | 292 | 8.0 | 0.0 | 0.00 | 0.73 | 0.00 | 73 | 1056.1 |
| 20260904224241 | 64 | 292 | 16.0 | 0.0 | 0.00 | 0.73 | 0.00 | 72 | 1056.1 |
| 20260904224125 | 64 | 315 | 6.0 | 0.0 | 0.00 | 0.73 | 0.00 | 72 | 1056.1 |
| 20260904224005 | 64 | 315 | 9.0 | 0.0 | 0.00 | 0.73 | 0.00 | 72 | 1056.1 |
| 20260904223900 | 64 | 292 | 11.0 | 0.0 | 0.00 | 0.73 | 0.00 | 72 | 1056.0 |
| 20260904223748 | 63 | 270 | 5.0 | 0.0 | 0.00 | 0.73 | 0.00 | 72 | 1056.1 |
| 20260904223641 | 63 | 292 | 3.0 | 0.0 | 0.00 | 0.73 | 0.00 | 72 | 1056.1 |
| 20260904223520 | 63 | 315 | 12.0 | 0.0 | 0.00 | 0.73 | 0.00 | 73 | 1056.0 |
| 20260904223407 | 63 | 315 | 8.0 | 0.0 | 0.00 | 0.73 | 0.00 | 73 | 1056.0 |
| 20260904223246 | 64 | 202 | 0.0 | 0.0 | 0.00 | 0.73 | 0.00 | 73 | 1056.0 |
| 20260904223124 | 63 | 292 | 6.0 | 0.0 | 0.00 | 0.73 | 0.00 | 73 | 1056.1 |
| 20260904222958 | 63 | 270 | 2.0 | 0.0 | 0.00 | 0.73 | 0.00 | 73 | 1056.0 |
| 20260904222850 | 63 | 315 | 11.0 | 0.0 | 0.00 | 0.73 | 0.00 | 73 | 1056.0 |
| 20260904222729 | 63 | 225 | 0.0 | 0.0 | 0.00 | 0.73 | 0.00 | 72 | 1056.0 |
| 20260904222610 | 64 | 315 | 3.0 | 0.0 | 0.00 | 0.73 | 0.00 | 72 | 1056.0 |
| 20260904222502 | 63 | 270 | 12.0 | 0.0 | 0.00 | 0.73 | 0.00 | 72 | 1055.9 |
| 20260904222349 | 64 | 315 | 11.0 | 0.0 | 0.00 | 0.73 | 0.00 | 72 | 1056.0 |
| 20260904222242 | 64 | 315 | 6.0 | 0.0 | 0.00 | 0.73 | 0.00 | 73 | 1055.9 |
| 20260904222113 | 64 | 337 | 0.0 | 0.0 | 0.00 | 0.73 | 0.00 | 73 | 1055.9 |
| 20260904222000 | 64 | 337 | 10.0 | 0.0 | 0.00 | 0.73 | 0.00 | 74 | 1055.9 |
| 20260904221838 | 64 | 292 | 5.0 | 0.0 | 0.00 | 0.73 | 0.00 | 73 | 1055.9 |
| 20260904221717 | 64 | 315 | 6.0 | 0.0 | 0.00 | 0.73 | 0.00 | 73 | 1055.9 |
| 20260904221606 | 64 | 315 | 10.0 | 0.0 | 0.00 | 0.73 | 0.00 | 73 | 1055.8 |
| 20260904221451 | 64 | 292 | 16.0 | 0.0 | 0.00 | 0.73 | 0.00 | 73 | 1055.9 |
| 20260904221330 | 64 | 247 | 6.0 | 0.0 | 0.00 | 0.73 | 0.00 | 73 | 1055.9 |
| 20260904221201 | 64 | 315 | 12.0 | 0.0 | 0.00 | 0.73 | 0.00 | 73 | 1055.8 |
| 20260904221048 | 64 | 22 | 0.0 | 0.0 | 0.00 | 0.73 | 0.00 | 73 | 1055.9 |
| 20260904220934 | 64 | 337 | 15.0 | 0.0 | 0.00 | 0.73 | 0.00 | 73 | 1056.0 |
| 20260904220815 | 64 | 315 | 10.0 | 0.0 | 0.00 | 0.73 | 0.00 | 73 | 1055.8 |
| 20260904220707 | 64 | 315 | 23.0 | 0.0 | 0.00 | 0.73 | 0.00 | 73 | 1055.9 |
| 20260904220555 | 64 | 270 | 8.0 | 0.0 | 0.00 | 0.73 | 0.00 | 73 | 1055.9 |
| 20260904220444 | 64 | 270 | 15.0 | 0.0 | 0.00 | 0.73 | 0.00 | 73 | 1055.9 |
| 20260904220338 | 64 | 202 | 14.0 | 0.0 | 0.00 | 0.73 | 0.00 | 73 | 1055.9 |
| 20260904220232 | 64 | 270 | 6.0 | 0.0 | 0.00 | 0.73 | 0.00 | 73 | 1055.9 |
| 20260904220128 | 64 | 292 | 5.0 | 0.0 | 0.00 | 0.73 | 0.00 | 74 | 1056.0 |
| 20260904220021 | 64 | 67 | 8.0 | 0.0 | 0.00 | 0.73 | 0.00 | 74 | 1055.9 |
| 20260904215900 | 64 | 270 | 6.0 | 0.0 | 0.00 | 0.73 | 0.00 | 75 | 1055.9 |
| 20260904215747 | 64 | 270 | 7.0 | 0.0 | 0.00 | 0.73 | 0.00 | 75 | 1055.8 |
| 20260904215642 | 64 | 337 | 9.0 | 0.0 | 0.00 | 0.73 | 0.00 | 75 | 1055.9 |
| 20260904215513 | 64 | 315 | 12.0 | 0.0 | 0.00 | 0.73 | 0.00 | 75 | 1055.8 |
| 20260904215351 | 64 | 315 | 10.0 | 0.0 | 0.00 | 0.73 | 0.00 | 75 | 1055.9 |
| 20260904215231 | 64 | 292 | 4.0 | 0.0 | 0.00 | 0.73 | 0.00 | 74 | 1055.9 |
| 20260904215118 | 64 | 315 | 10.0 | 0.0 | 0.00 | 0.73 | 0.00 | 73 | 1055.8 |
| 20260904215012 | 64 | 315 | 6.0 | 0.0 | 0.00 | 0.73 | 0.00 | 73 | 1055.9 |
| 20260904214907 | 64 | 315 | 0.0 | 0.0 | 0.00 | 0.73 | 0.00 | 73 | 1055.8 |
| 20260904214738 | 64 | 315 | 6.0 | 0.0 | 0.00 | 0.73 | 0.00 | 73 | 1055.8 |
| 20260904214624 | 64 | 315 | 9.0 | 0.0 | 0.00 | 0.73 | 0.00 | 73 | 1055.8 |
| 20260904214511 | 64 | 292 | 6.0 | 0.0 | 0.00 | 0.73 | 0.00 | 73 | 1055.8 |
| 20260904214400 | 64 | 315 | 9.0 | 0.0 | 0.00 | 0.73 | 0.00 | 73 | 1055.8 |
| 20260904214253 | 64 | 292 | 12.0 | 0.0 | 0.00 | 0.73 | 0.00 | 73 | 1055.8 |
| 20260904214133 | 64 | 292 | 13.0 | 0.0 | 0.00 | 0.73 | 0.00 | 73 | 1055.7 |
| 20260904214027 | 64 | 315 | 6.0 | 0.0 | 0.00 | 0.73 | 0.00 | 73 | 1055.7 |
| 20260904213859 | 64 | 292 | 10.0 | 0.0 | 0.00 | 0.73 | 0.00 | 73 | 1055.7 |
| 20260904213752 | 64 | 315 | 8.0 | 0.0 | 0.00 | 0.73 | 0.00 | 73 | 1055.8 |
| 20260904213637 | 64 | 270 | 2.0 | 0.0 | 0.00 | 0.73 | 0.00 | 73 | 1055.7 |
| 20260904213518 | 64 | 315 | 8.0 | 0.0 | 0.00 | 0.73 | 0.00 | 73 | 1055.7 |
| 20260904213413 | 64 | 270 | 8.0 | 0.0 | 0.00 | 0.73 | 0.00 | 73 | 1055.6 |
| 20260904213306 | 64 | 292 | 15.0 | 0.0 | 0.00 | 0.73 | 0.00 | 73 | 1055.7 |
| 20260904213153 | 64 | 292 | 9.0 | 0.0 | 0.00 | 0.73 | 0.00 | 73 | 1055.7 |
| 20260904213040 | 64 | 247 | 7.0 | 0.0 | 0.00 | 0.73 | 0.00 | 73 | 1055.7 |
| 20260904212935 | 64 | 315 | 5.0 | 0.0 | 0.00 | 0.73 | 0.00 | 74 | 1055.7 |
| 20260904212823 | 64 | 292 | 10.0 | 0.0 | 0.00 | 0.73 | 0.00 | 74 | 1055.7 |
| 20260904212716 | 64 | 292 | 6.0 | 0.0 | 0.00 | 0.73 | 0.00 | 74 | 1055.7 |
| 20260904212603 | 64 | 292 | 8.0 | 0.0 | 0.00 | 0.73 | 0.00 | 75 | 1055.6 |
| 20260904212450 | 64 | 315 | 20.0 | 0.0 | 0.00 | 0.73 | 0.00 | 75 | 1055.7 |
| 20260904212329 | 64 | 315 | 11.0 | 0.0 | 0.00 | 0.73 | 0.00 | 76 | 1055.7 |
| 20260904212217 | 64 | 292 | 8.0 | 0.0 | 0.00 | 0.73 | 0.00 | 76 | 1055.6 |
| 20260904212114 | 64 | 292 | 8.0 | 0.0 | 0.00 | 0.73 | 0.00 | 75 | 1055.7 |
| 20260904212008 | 64 | 0 | 11.0 | 0.0 | 0.00 | 0.73 | 0.00 | 75 | 1055.6 |
| 20260904211855 | 64 | 315 | 6.0 | 0.0 | 0.00 | 0.73 | 0.00 | 75 | 1055.7 |
| 20260904211749 | 64 | 315 | 6.0 | 0.0 | 0.00 | 0.73 | 0.00 | 75 | 1055.7 |
| 20260904211643 | 64 | 0 | 3.0 | 0.0 | 0.00 | 0.73 | 0.00 | 75 | 1055.7 |
| 20260904211530 | 64 | 315 | 0.0 | 0.0 | 0.00 | 0.73 | 0.00 | 74 | 1055.6 |
| 20260904211416 | 64 | 337 | 16.0 | 0.0 | 0.00 | 0.73 | 0.00 | 74 | 1055.5 |
| 20260904211255 | 64 | 112 | 0.0 | 0.0 | 0.00 | 0.73 | 0.00 | 73 | 1055.6 |
| 20260904211144 | 64 | 292 | 9.0 | 0.0 | 0.00 | 0.73 | 0.00 | 73 | 1055.5 |
| 20260904211037 | 64 | 0 | 4.0 | 0.0 | 0.00 | 0.73 | 0.00 | 73 | 1055.6 |
| 20260904210911 | 64 | 270 | 8.0 | 0.0 | 0.00 | 0.73 | 0.00 | 73 | 1055.6 |
| 20260904210804 | 64 | 0 | 4.0 | 0.0 | 0.00 | 0.73 | 0.00 | 73 | 1055.5 |
| 20260904210650 | 64 | 315 | 13.0 | 0.0 | 0.00 | 0.73 | 0.00 | 73 | 1055.6 |
| 20260904210531 | 64 | 315 | 6.0 | 0.0 | 0.00 | 0.73 | 0.00 | 73 | 1055.5 |
| 20260904210425 | 64 | 22 | 4.0 | 0.0 | 0.00 | 0.73 | 0.00 | 73 | 1055.5 |
| 20260904210310 | 64 | 337 | 11.0 | 0.0 | 0.00 | 0.73 | 0.00 | 74 | 1055.5 |
| 20260904210158 | 64 | 292 | 10.0 | 0.0 | 0.00 | 0.73 | 0.00 | 74 | 1055.5 |
| 20260904210055 | 64 | 0 | 4.0 | 0.0 | 0.00 | 0.73 | 0.00 | 74 | 1055.5 |
| 20260904205948 | 64 | 292 | 8.0 | 0.0 | 0.00 | 0.73 | 0.00 | 74 | 1055.5 |
| 20260904205842 | 64 | 292 | 8.0 | 0.0 | 0.00 | 0.73 | 0.00 | 74 | 1055.5 |
| 20260904205724 | 64 | 337 | 2.0 | 0.0 | 0.00 | 0.73 | 0.00 | 74 | 1055.4 |
| 20260904205608 | 64 | 270 | 4.0 | 0.0 | 0.00 | 0.73 | 0.00 | 74 | 1055.4 |
| 20260904205455 | 64 | 270 | 10.0 | 0.0 | 0.00 | 0.73 | 0.00 | 75 | 1055.5 |
| 20260904205342 | 64 | 270 | 9.0 | 0.0 | 0.00 | 0.73 | 0.00 | 75 | 1055.5 |
| 20260904205229 | 64 | 270 | 9.0 | 0.0 | 0.00 | 0.73 | 0.00 | 76 | 1055.5 |
| 20260904205114 | 64 | 292 | 8.0 | 0.0 | 0.00 | 0.73 | 0.00 | 76 | 1055.5 |
| 20260904205005 | 64 | 315 | 5.0 | 0.0 | 0.00 | 0.73 | 0.00 | 76 | 1055.5 |
| 20260904204849 | 64 | 270 | 12.0 | 0.0 | 0.00 | 0.73 | 0.00 | 76 | 1055.5 |
| 20260904204737 | 64 | 292 | 12.0 | 0.0 | 0.00 | 0.73 | 0.00 | 76 | 1055.5 |
| 20260904204623 | 64 | 292 | 7.0 | 0.0 | 0.00 | 0.73 | 0.00 | 76 | 1055.5 |
| 20260904204512 | 64 | 292 | 6.0 | 0.0 | 0.00 | 0.73 | 0.00 | 76 | 1055.5 |
| 20260904204406 | 64 | 315 | 8.0 | 0.0 | 0.00 | 0.73 | 0.00 | 76 | 1055.5 |
| 20260904204300 | 64 | 202 | 0.0 | 0.0 | 0.00 | 0.73 | 0.00 | 76 | 1055.5 |
| 20260904204155 | 64 | 292 | 10.0 | 0.0 | 0.00 | 0.73 | 0.00 | 76 | 1055.5 |
| 20260904204034 | 64 | 292 | 8.0 | 0.0 | 0.00 | 0.73 | 0.00 | 76 | 1055.4 |
| 20260904203921 | 64 | 292 | 8.0 | 0.0 | 0.00 | 0.73 | 0.00 | 76 | 1055.4 |
| 20260904203808 | 64 | 292 | 6.0 | 0.0 | 0.00 | 0.73 | 0.00 | 76 | 1055.4 |
| 20260904203654 | 64 | 247 | 12.0 | 0.0 | 0.00 | 0.73 | 0.00 | 76 | 1055.3 |
| 20260904203533 | 64 | 270 | 3.0 | 0.0 | 0.00 | 0.73 | 0.00 | 76 | 1055.3 |
| 20260904203420 | 64 | 292 | 15.0 | 0.0 | 0.00 | 0.73 | 0.00 | 75 | 1055.2 |
| 20260904203301 | 64 | 315 | 8.0 | 0.0 | 0.00 | 0.73 | 0.00 | 75 | 1055.3 |
| 20260904203155 | 64 | 292 | 8.0 | 0.0 | 0.00 | 0.73 | 0.00 | 75 | 1055.2 |
| 20260904203049 | 65 | 292 | 5.0 | 0.0 | 0.00 | 0.73 | 0.00 | 75 | 1055.2 |
| 20260904202938 | 65 | 315 | 9.0 | 0.0 | 0.00 | 0.73 | 0.00 | 74 | 1055.2 |
| 20260904202831 | 65 | 270 | 3.0 | 0.0 | 0.00 | 0.73 | 0.00 | 74 | 1055.2 |
| 20260904202717 | 65 | 292 | 8.0 | 0.0 | 0.00 | 0.73 | 0.00 | 74 | 1055.3 |
| 20260904202607 | 65 | 225 | 6.0 | 0.0 | 0.00 | 0.73 | 0.00 | 73 | 1055.3 |
| 20260904202459 | 65 | 22 | 6.0 | 0.0 | 0.00 | 0.73 | 0.00 | 74 | 1055.2 |
| 20260904202340 | 65 | 270 | 12.0 | 0.0 | 0.00 | 0.73 | 0.00 | 74 | 1055.2 |
| 20260904202234 | 65 | 292 | 16.0 | 0.0 | 0.00 | 0.73 | 0.00 | 74 | 1055.1 |
| 20260904202121 | 65 | 247 | 8.0 | 0.0 | 0.00 | 0.73 | 0.00 | 74 | 1055.2 |
| 20260904202015 | 64 | 270 | 10.0 | 0.0 | 0.00 | 0.73 | 0.00 | 74 | 1055.2 |
| 20260904201910 | 64 | 292 | 7.0 | 0.0 | 0.00 | 0.73 | 0.00 | 74 | 1055.3 |
| 20260904201750 | 64 | 292 | 13.0 | 0.0 | 0.00 | 0.73 | 0.00 | 75 | 1055.3 |
| 20260904201645 | 64 | 292 | 8.0 | 0.0 | 0.00 | 0.73 | 0.00 | 75 | 1055.3 |
| 20260904201540 | 64 | 315 | 0.0 | 0.0 | 0.00 | 0.73 | 0.00 | 75 | 1055.2 |
| 20260904201426 | 64 | 292 | 5.0 | 0.0 | 0.00 | 0.73 | 0.00 | 75 | 1055.2 |
| 20260904201312 | 64 | 247 | 15.0 | 0.0 | 0.00 | 0.73 | 0.00 | 75 | 1055.3 |
| 20260904201152 | 64 | 315 | 6.0 | 0.0 | 0.00 | 0.73 | 0.00 | 75 | 1055.2 |
| 20260904201046 | 64 | 270 | 8.0 | 0.0 | 0.00 | 0.73 | 0.00 | 75 | 1055.2 |
| 20260904200926 | 65 | 292 | 6.0 | 0.0 | 0.00 | 0.73 | 0.00 | 75 | 1055.1 |
| 20260904200821 | 64 | 292 | 12.0 | 0.0 | 0.00 | 0.73 | 0.00 | 76 | 1055.1 |
| 20260904200716 | 65 | 292 | 12.0 | 0.0 | 0.00 | 0.73 | 0.00 | 77 | 1055.2 |
| 20260904200610 | 65 | 270 | 9.0 | 0.0 | 0.00 | 0.73 | 0.00 | 76 | 1055.0 |
| 20260904200441 | 65 | 315 | 3.0 | 0.0 | 0.00 | 0.73 | 0.00 | 76 | 1055.1 |
| 20260904200327 | 65 | 337 | 8.0 | 0.0 | 0.00 | 0.73 | 0.00 | 76 | 1055.1 |
| 20260904200217 | 65 | 292 | 15.0 | 0.0 | 0.00 | 0.73 | 0.00 | 76 | 1055.0 |
| 20260904200103 | 65 | 0 | 8.0 | 0.0 | 0.00 | 0.73 | 0.00 | 75 | 1055.0 |
| 20260904195957 | 65 | 270 | 3.0 | 0.0 | 0.00 | 0.73 | 0.00 | 75 | 1055.0 |
| 20260904195846 | 65 | 337 | 13.0 | 0.0 | 0.00 | 0.73 | 0.00 | 75 | 1055.0 |
| 20260904195739 | 65 | 315 | 7.0 | 0.0 | 0.00 | 0.73 | 0.00 | 75 | 1055.0 |
| 20260904195624 | 65 | 337 | 6.0 | 0.0 | 0.00 | 0.73 | 0.00 | 75 | 1055.0 |
| 20260904195512 | 65 | 292 | 6.0 | 0.0 | 0.00 | 0.73 | 0.00 | 75 | 1055.1 |
| 20260904195352 | 65 | 270 | 5.0 | 0.0 | 0.00 | 0.73 | 0.00 | 74 | 1055.0 |
| 20260904195246 | 65 | 337 | 4.0 | 0.0 | 0.00 | 0.73 | 0.00 | 74 | 1054.9 |
| 20260904195132 | 65 | 292 | 11.0 | 0.0 | 0.00 | 0.73 | 0.00 | 74 | 1055.0 |
| 20260904195012 | 65 | 292 | 6.0 | 0.0 | 0.00 | 0.73 | 0.00 | 74 | 1055.0 |
| 20260904194859 | 65 | 292 | 9.0 | 0.0 | 0.00 | 0.73 | 0.00 | 74 | 1055.0 |
| 20260904194745 | 65 | 315 | 13.0 | 0.0 | 0.00 | 0.73 | 0.00 | 74 | 1054.9 |
| 20260904194624 | 65 | 337 | 13.0 | 0.0 | 0.00 | 0.73 | 0.00 | 74 | 1054.9 |
| 20260904194511 | 65 | 315 | 6.0 | 0.0 | 0.00 | 0.73 | 0.00 | 74 | 1054.9 |
| 20260904194359 | 65 | 202 | 0.0 | 0.0 | 0.00 | 0.73 | 0.00 | 74 | 1054.9 |
| 20260904194252 | 65 | 337 | 7.0 | 0.0 | 0.00 | 0.73 | 0.00 | 74 | 1054.8 |
| 20260904194126 | 65 | 337 | 5.0 | 0.0 | 0.00 | 0.73 | 0.00 | 73 | 1054.7 |
| 20260904194018 | 65 | 292 | 8.0 | 0.0 | 0.00 | 0.73 | 0.00 | 74 | 1054.8 |
| 20260904193905 | 65 | 292 | 16.0 | 0.0 | 0.00 | 0.73 | 0.00 | 74 | 1054.8 |
| 20260904193746 | 65 | 270 | 11.0 | 0.0 | 0.00 | 0.73 | 0.00 | 75 | 1054.9 |
| 20260904193631 | 65 | 315 | 2.0 | 0.0 | 0.00 | 0.73 | 0.00 | 75 | 1054.9 |
| 20260904193518 | 65 | 315 | 14.0 | 0.0 | 0.00 | 0.73 | 0.00 | 75 | 1054.8 |
| 20260904193405 | 65 | 270 | 5.0 | 0.0 | 0.00 | 0.73 | 0.00 | 74 | 1054.7 |
| 20260904193252 | 65 | 337 | 3.0 | 0.0 | 0.00 | 0.73 | 0.00 | 74 | 1054.7 |
| 20260904193140 | 65 | 337 | 9.0 | 0.0 | 0.00 | 0.73 | 0.00 | 75 | 1054.6 |
| 20260904193033 | 65 | 315 | 8.0 | 0.0 | 0.00 | 0.73 | 0.00 | 74 | 1054.6 |
| 20260904192912 | 65 | 292 | 13.0 | 0.0 | 0.00 | 0.73 | 0.00 | 75 | 1054.6 |
| 20260904192801 | 65 | 270 | 12.0 | 0.0 | 0.00 | 0.73 | 0.00 | 75 | 1054.5 |
| 20260904192654 | 65 | 337 | 5.0 | 0.0 | 0.00 | 0.73 | 0.00 | 75 | 1054.5 |
| 20260904192541 | 65 | 270 | 8.0 | 0.0 | 0.00 | 0.73 | 0.00 | 75 | 1054.5 |
| 20260904192427 | 65 | 315 | 20.0 | 0.0 | 0.00 | 0.73 | 0.00 | 75 | 1054.6 |
| 20260904192306 | 65 | 315 | 8.0 | 0.0 | 0.00 | 0.73 | 0.00 | 75 | 1054.6 |
| 20260904192155 | 65 | 292 | 16.0 | 0.0 | 0.00 | 0.73 | 0.00 | 76 | 1054.5 |
| 20260904192048 | 65 | 247 | 11.0 | 0.0 | 0.00 | 0.73 | 0.00 | 76 | 1054.5 |
| 20260904191938 | 65 | 270 | 9.0 | 0.0 | 0.00 | 0.73 | 0.00 | 76 | 1054.5 |
| 20260904191830 | 64 | 337 | 14.0 | 0.0 | 0.00 | 0.73 | 0.00 | 76 | 1054.5 |
| 20260904191711 | 64 | 292 | 9.0 | 0.0 | 0.00 | 0.73 | 0.00 | 76 | 1054.5 |
| 20260904191606 | 64 | 315 | 10.0 | 0.0 | 0.00 | 0.73 | 0.00 | 76 | 1054.4 |
| 20260904191459 | 64 | 315 | 7.0 | 0.0 | 0.00 | 0.73 | 0.00 | 76 | 1054.5 |
| 20260904191356 | 64 | 337 | 15.0 | 0.0 | 0.00 | 0.73 | 0.00 | 76 | 1054.5 |
| 20260904191249 | 64 | 247 | 5.0 | 0.0 | 0.00 | 0.73 | 0.00 | 76 | 1054.5 |
| 20260904191128 | 64 | 315 | 11.0 | 0.0 | 0.00 | 0.73 | 0.00 | 76 | 1054.4 |
| 20260904191023 | 64 | 292 | 9.0 | 0.0 | 0.00 | 0.73 | 0.00 | 76 | 1054.4 |
| 20260904190917 | 64 | 270 | 12.0 | 0.0 | 0.00 | 0.73 | 0.00 | 76 | 1054.4 |
| 20260904190748 | 64 | 292 | 14.0 | 0.0 | 0.00 | 0.73 | 0.00 | 76 | 1054.4 |
| 20260904190635 | 64 | 270 | 4.0 | 0.0 | 0.00 | 0.73 | 0.00 | 76 | 1054.4 |
| 20260904190515 | 64 | 337 | 8.0 | 0.0 | 0.00 | 0.73 | 0.00 | 76 | 1054.4 |
| 20260904190411 | 64 | 292 | 8.0 | 0.0 | 0.00 | 0.73 | 0.00 | 76 | 1054.4 |
| 20260904190304 | 64 | 247 | 8.0 | 0.0 | 0.00 | 0.73 | 0.00 | 76 | 1054.4 |
| 20260904190151 | 64 | 292 | 4.0 | 0.0 | 0.00 | 0.73 | 0.00 | 76 | 1054.4 |
| 20260904190030 | 64 | 315 | 5.0 | 0.0 | 0.00 | 0.73 | 0.00 | 76 | 1054.3 |
| 20260904185917 | 64 | 292 | 20.0 | 0.0 | 0.00 | 0.73 | 0.00 | 76 | 1054.4 |
| 20260904185812 | 64 | 270 | 14.0 | 0.0 | 0.00 | 0.73 | 0.00 | 76 | 1054.3 |
| 20260904185700 | 64 | 337 | 0.0 | 0.0 | 0.00 | 0.73 | 0.00 | 76 | 1054.3 |
| 20260904185553 | 64 | 270 | 12.0 | 0.0 | 0.00 | 0.73 | 0.00 | 76 | 1054.4 |
| 20260904185440 | 64 | 337 | 3.0 | 0.0 | 0.00 | 0.73 | 0.00 | 76 | 1054.4 |
| 20260904185327 | 64 | 315 | 0.0 | 0.0 | 0.00 | 0.73 | 0.00 | 76 | 1054.3 |
| 20260904185222 | 64 | 315 | 3.0 | 0.0 | 0.00 | 0.73 | 0.00 | 76 | 1054.3 |
| 20260904185109 | 64 | 292 | 9.0 | 0.0 | 0.00 | 0.73 | 0.00 | 76 | 1054.3 |
| 20260904184958 | 64 | 270 | 11.0 | 0.0 | 0.00 | 0.73 | 0.00 | 76 | 1054.3 |
| 20260904184850 | 64 | 315 | 0.0 | 0.0 | 0.00 | 0.73 | 0.00 | 76 | 1054.3 |
| 20260904184722 | 64 | 315 | 7.0 | 0.0 | 0.00 | 0.73 | 0.00 | 76 | 1054.2 |
| 20260904184608 | 64 | 315 | 0.0 | 0.0 | 0.00 | 0.73 | 0.00 | 76 | 1054.2 |
| 20260904184455 | 64 | 270 | 19.0 | 0.0 | 0.00 | 0.73 | 0.00 | 76 | 1054.3 |
| 20260904184336 | 64 | 292 | 7.0 | 0.0 | 0.00 | 0.73 | 0.00 | 76 | 1054.3 |
| 20260904184221 | 64 | 292 | 6.0 | 0.0 | 0.00 | 0.73 | 0.00 | 75 | 1054.2 |
| 20260904184108 | 64 | 337 | 12.0 | 0.0 | 0.00 | 0.73 | 0.00 | 76 | 1054.2 |
| 20260904183939 | 64 | 292 | 8.0 | 0.0 | 0.00 | 0.73 | 0.00 | 76 | 1054.2 |
| 20260904183825 | 64 | 315 | 19.0 | 0.0 | 0.00 | 0.73 | 0.00 | 76 | 1054.2 |
| 20260904183704 | 64 | 292 | 5.0 | 0.0 | 0.00 | 0.73 | 0.00 | 76 | 1054.1 |
| 20260904183551 | 64 | 270 | 6.0 | 0.0 | 0.00 | 0.73 | 0.00 | 76 | 1054.1 |
| 20260904183438 | 64 | 270 | 12.0 | 0.0 | 0.00 | 0.73 | 0.00 | 76 | 1054.1 |
| 20260904183333 | 64 | 315 | 12.0 | 0.0 | 0.00 | 0.73 | 0.00 | 75 | 1054.2 |
| 20260904183220 | 64 | 292 | 4.0 | 0.0 | 0.00 | 0.73 | 0.00 | 75 | 1054.2 |
| 20260904183114 | 64 | 337 | 4.0 | 0.0 | 0.00 | 0.73 | 0.00 | 75 | 1054.2 |
| 20260904182953 | 64 | 292 | 16.0 | 0.0 | 0.00 | 0.73 | 0.00 | 76 | 1054.1 |
| 20260904182834 | 64 | 315 | 23.0 | 0.0 | 0.00 | 0.73 | 0.00 | 75 | 1054.1 |
| 20260904182719 | 64 | 315 | 5.0 | 0.0 | 0.00 | 0.73 | 0.00 | 75 | 1054.1 |
| 20260904182606 | 64 | 292 | 21.0 | 0.0 | 0.00 | 0.73 | 0.00 | 75 | 1054.0 |
| 20260904182453 | 64 | 292 | 12.0 | 0.0 | 0.00 | 0.73 | 0.00 | 75 | 1054.0 |
| 20260904182340 | 64 | 292 | 7.0 | 0.0 | 0.00 | 0.73 | 0.00 | 75 | 1054.1 |
| 20260904182234 | 64 | 292 | 14.0 | 0.0 | 0.00 | 0.73 | 0.00 | 75 | 1054.1 |
| 20260904182124 | 64 | 315 | 8.0 | 0.0 | 0.00 | 0.73 | 0.00 | 76 | 1054.0 |
| 20260904182018 | 64 | 292 | 20.0 | 0.0 | 0.00 | 0.73 | 0.00 | 76 | 1054.1 |
| 20260904181903 | 64 | 270 | 5.0 | 0.0 | 0.00 | 0.73 | 0.00 | 76 | 1054.0 |
| 20260904181749 | 64 | 0 | 0.0 | 0.0 | 0.00 | 0.73 | 0.00 | 76 | 1053.9 |
| 20260904181621 | 64 | 247 | 14.0 | 0.0 | 0.00 | 0.73 | 0.00 | 76 | 1054.0 |
| 20260904181508 | 64 | 292 | 11.0 | 0.0 | 0.00 | 0.73 | 0.00 | 76 | 1054.0 |
| 20260904181354 | 64 | 247 | 6.0 | 0.0 | 0.00 | 0.73 | 0.00 | 75 | 1054.0 |
| 20260904181236 | 64 | 337 | 12.0 | 0.0 | 0.00 | 0.73 | 0.00 | 75 | 1054.0 |
| 20260904181129 | 64 | 270 | 16.0 | 0.0 | 0.00 | 0.73 | 0.00 | 75 | 1054.0 |
| 20260904181024 | 64 | 0 | 9.0 | 0.0 | 0.00 | 0.73 | 0.00 | 75 | 1054.0 |
| 20260904180911 | 65 | 292 | 10.0 | 0.0 | 0.00 | 0.73 | 0.00 | 75 | 1053.9 |
| 20260904180805 | 65 | 0 | 15.0 | 0.0 | 0.00 | 0.73 | 0.00 | 76 | 1053.9 |
| 20260904180644 | 65 | 315 | 10.0 | 0.0 | 0.00 | 0.73 | 0.00 | 76 | 1053.9 |
| 20260904180531 | 65 | 270 | 6.0 | 0.0 | 0.00 | 0.73 | 0.00 | 76 | 1053.7 |
| 20260904180402 | 65 | 292 | 11.0 | 0.0 | 0.00 | 0.73 | 0.00 | 76 | 1053.8 |
| 20260904180249 | 65 | 247 | 4.0 | 0.0 | 0.00 | 0.73 | 0.00 | 76 | 1053.8 |
| 20260904180135 | 65 | 270 | 8.0 | 0.0 | 0.00 | 0.73 | 0.00 | 76 | 1053.8 |
| 20260904180024 | 65 | 315 | 0.0 | 0.0 | 0.00 | 0.73 | 0.00 | 76 | 1053.8 |
| 20260904175910 | 65 | 315 | 0.0 | 0.0 | 0.00 | 0.73 | 0.00 | 76 | 1053.8 |
| 20260904175807 | 65 | 315 | 16.0 | 0.0 | 0.00 | 0.73 | 0.00 | 76 | 1053.8 |
| 20260904175659 | 65 | 292 | 6.0 | 0.0 | 0.00 | 0.73 | 0.00 | 76 | 1053.7 |
| 20260904175546 | 65 | 270 | 4.0 | 0.0 | 0.00 | 0.73 | 0.00 | 75 | 1053.8 |
| 20260904175433 | 65 | 270 | 8.0 | 0.0 | 0.00 | 0.73 | 0.00 | 74 | 1053.7 |
| 20260904175328 | 65 | 292 | 5.0 | 0.0 | 0.00 | 0.73 | 0.00 | 74 | 1053.7 |
| 20260904175217 | 65 | 315 | 7.0 | 0.0 | 0.00 | 0.73 | 0.00 | 74 | 1053.7 |
| 20260904175110 | 65 | 315 | 16.0 | 0.0 | 0.00 | 0.73 | 0.00 | 75 | 1053.7 |
| 20260904175005 | 65 | 270 | 11.0 | 0.0 | 0.00 | 0.73 | 0.00 | 75 | 1053.8 |
| 20260904174853 | 65 | 247 | 8.0 | 0.0 | 0.00 | 0.73 | 0.00 | 74 | 1053.7 |
| 20260904174747 | 65 | 270 | 6.0 | 0.0 | 0.00 | 0.73 | 0.00 | 74 | 1053.5 |
| 20260904174633 | 65 | 292 | 7.0 | 0.0 | 0.00 | 0.73 | 0.00 | 73 | 1053.5 |
| 20260904174521 | 65 | 270 | 21.0 | 0.0 | 0.00 | 0.73 | 0.00 | 74 | 1053.5 |
| 20260904174416 | 65 | 315 | 0.0 | 0.0 | 0.00 | 0.73 | 0.00 | 74 | 1053.6 |
| 20260904174310 | 65 | 315 | 12.0 | 0.0 | 0.00 | 0.73 | 0.00 | 75 | 1053.5 |
| 20260904174206 | 65 | 337 | 6.0 | 0.0 | 0.00 | 0.73 | 0.00 | 75 | 1053.6 |
| 20260904174100 | 65 | 22 | 6.0 | 0.0 | 0.00 | 0.73 | 0.00 | 74 | 1053.5 |
| 20260904173933 | 65 | 292 | 13.0 | 0.0 | 0.00 | 0.73 | 0.00 | 75 | 1053.5 |
| 20260904173828 | 65 | 337 | 15.0 | 0.0 | 0.00 | 0.73 | 0.00 | 75 | 1053.5 |
| 20260904173721 | 65 | 315 | 7.0 | 0.0 | 0.00 | 0.73 | 0.00 | 75 | 1053.6 |
| 20260904173608 | 65 | 315 | 5.0 | 0.0 | 0.00 | 0.73 | 0.00 | 75 | 1053.6 |
| 20260904173455 | 65 | 0 | 13.0 | 0.0 | 0.00 | 0.73 | 0.00 | 75 | 1053.5 |
| 20260904173350 | 65 | 292 | 6.0 | 0.0 | 0.00 | 0.73 | 0.00 | 74 | 1053.5 |
| 20260904173244 | 65 | 292 | 14.0 | 0.0 | 0.00 | 0.73 | 0.00 | 74 | 1053.4 |
| 20260904173134 | 65 | 315 | 6.0 | 0.0 | 0.00 | 0.73 | 0.00 | 74 | 1053.5 |
| 20260904173026 | 65 | 292 | 10.0 | 0.0 | 0.00 | 0.73 | 0.00 | 74 | 1053.4 |
| 20260904172916 | 65 | 270 | 11.0 | 0.0 | 0.00 | 0.73 | 0.00 | 73 | 1053.4 |
| 20260904172808 | 65 | 292 | 13.0 | 0.0 | 0.00 | 0.73 | 0.00 | 74 | 1053.4 |
| 20260904172656 | 65 | 337 | 7.0 | 0.0 | 0.00 | 0.73 | 0.00 | 73 | 1053.4 |
| 20260904172550 | 65 | 292 | 18.0 | 0.0 | 0.00 | 0.73 | 0.00 | 74 | 1053.4 |
| 20260904172438 | 65 | 337 | 0.0 | 0.0 | 0.00 | 0.73 | 0.00 | 73 | 1053.3 |
| 20260904172330 | 65 | 315 | 11.0 | 0.0 | 0.00 | 0.73 | 0.00 | 72 | 1053.4 |
| 20260904172209 | 65 | 315 | 4.0 | 0.0 | 0.00 | 0.73 | 0.00 | 72 | 1053.3 |
| 20260904172056 | 65 | 292 | 3.0 | 0.0 | 0.00 | 0.73 | 0.00 | 72 | 1053.3 |
| 20260904171951 | 65 | 315 | 14.0 | 0.0 | 0.00 | 0.73 | 0.00 | 72 | 1053.3 |
| 20260904171846 | 65 | 270 | 0.0 | 0.0 | 0.00 | 0.73 | 0.00 | 72 | 1053.3 |
| 20260904171725 | 65 | 270 | 2.0 | 0.0 | 0.00 | 0.73 | 0.00 | 71 | 1053.3 |
| 20260904171620 | 65 | 270 | 12.0 | 0.0 | 0.00 | 0.73 | 0.00 | 71 | 1053.4 |
| 20260904171514 | 65 | 292 | 6.0 | 0.0 | 0.00 | 0.73 | 0.00 | 72 | 1053.4 |